GFSSGP_prec_precacc24_135.txt.gz
Total_Precipitation_Accumulation
0.00 0.00 0.00 0.00 0.00 0.00 0.00 0.00 0.00 0.00 0.00 0.00 0.00 0.00 0.00 0.00 0.00 0.00 0.00 0.00 0.00 0.00 0.00 0.00 0.00 0.00 0.00 0.00 0.00 0.00 0.00 0.00 0.00 0.00 0.00 0.00 0.00 0.00 0.00 0.00 0.00 0.00 0.00 0.00 0.00 0.00 0.01 0.01 0.00
0.00 0.00 0.00 0.00 0.00 0.00 0.00 0.00 0.00 0.00 0.00 0.00 0.00 0.00 0.00 0.00 0.00 0.00 0.00 0.00 0.00 0.00 0.00 0.00 0.00 0.00 0.00 0.00 0.00 0.00 0.00 0.00 0.00 0.00 0.00 0.00 0.00 0.00 0.00 0.00 0.00 0.00 0.00 0.00 0.00 0.00 0.00 0.00 0.00
0.00 0.00 0.00 0.00 0.00 0.00 0.00 0.00 0.00 0.00 0.00 0.00 0.00 0.00 0.00 0.00 0.00 0.00 0.00 0.00 0.00 0.00 0.00 0.00 0.00 0.00 0.00 0.00 0.00 0.00 0.00 0.00 0.00 0.00 0.00 0.00 0.00 0.00 0.00 0.00 0.00 0.00 0.00 0.00 0.00 0.00 0.00 0.00 0.00
0.00 0.00 0.00 0.00 0.00 0.00 0.00 0.00 0.00 0.00 0.00 0.00 0.00 0.00 0.00 0.00 0.00 0.00 0.00 0.00 0.00 0.00 0.00 0.00 0.00 0.00 0.00 0.00 0.00 0.00 0.00 0.00 0.00 0.00 0.00 0.00 0.00 0.00 0.00 0.00 0.00 0.02 0.02 0.01 0.01 0.02 0.00 0.00 0.00
0.00 0.00 0.00 0.00 0.00 0.00 0.00 0.00 0.00 0.00 0.00 0.00 0.00 0.00 0.00 0.00 0.00 0.00 0.00 0.00 0.00 0.00 0.00 0.00 0.00 0.00 0.00 0.00 0.00 0.00 0.00 0.00 0.00 0.00 0.00 0.00 0.00 0.00 0.00 0.00 0.00 0.00 0.02 0.00 0.01 0.01 0.00 0.00 0.00
0.00 0.00 0.00 0.00 0.00 0.00 0.00 0.00 0.00 0.00 0.00 0.00 0.00 0.00 0.00 0.00 0.00 0.00 0.00 0.00 0.00 0.00 0.00 0.00 0.00 0.00 0.00 0.00 0.00 0.00 0.00 0.00 0.00 0.00 0.00 0.00 0.00 0.00 0.00 0.00 0.00 0.01 0.01 0.01 0.01 0.00 0.00 0.00 0.00
0.00 0.00 0.00 0.00 0.00 0.00 0.00 0.00 0.00 0.00 0.00 0.00 0.00 0.00 0.00 0.00 0.00 0.00 0.00 0.00 0.00 0.00 0.00 0.00 0.00 0.00 0.00 0.00 0.00 0.00 0.00 0.00 0.00 0.00 0.00 0.00 0.00 0.00 0.00 0.00 0.00 0.00 0.01 0.01 0.00 0.00 0.00 0.00 0.00
0.00 0.00 0.00 0.00 0.00 0.00 0.00 0.00 0.00 0.00 0.00 0.00 0.00 0.00 0.00 0.00 0.00 0.00 0.00 0.00 0.00 0.00 0.00 0.01 0.00 0.00 0.00 0.00 0.00 0.00 0.00 0.00 0.00 0.00 0.00 0.00 0.00 0.00 0.00 0.00 0.00 0.00 0.01 0.00 0.00 0.00 0.00 0.02 0.11
0.00 0.00 0.00 0.00 0.00 0.00 0.00 0.00 0.00 0.00 0.00 0.00 0.00 0.00 0.00 0.00 0.00 0.00 0.00 0.00 0.00 0.00 0.00 0.01 0.01 0.00 0.00 0.00 0.00 0.00 0.00 0.00 0.00 0.00 0.00 0.00 0.00 0.00 0.00 0.00 0.02 0.08 0.01 0.00 0.00 0.00 0.00 0.03 0.04
0.00 0.00 0.00 0.00 0.00 0.00 0.00 0.00 0.00 0.00 0.00 0.00 0.00 0.00 0.00 0.00 0.00 0.00 0.00 0.00 0.00 0.00 0.00 0.00 0.01 0.01 0.00 0.00 0.00 0.00 0.00 0.00 0.00 0.00 0.00 0.00 0.00 0.00 0.00 0.00 0.02 0.08 0.08 0.00 0.00 0.00 0.00 0.01 0.00
0.00 0.00 0.00 0.00 0.00 0.00 0.00 0.00 0.00 0.00 0.00 0.00 0.00 0.00 0.00 0.00 0.00 0.00 0.00 0.00 0.00 0.00 0.00 0.00 0.00 0.03 0.02 0.00 0.00 0.00 0.00 0.00 0.00 0.00 0.00 0.00 0.00 0.02 0.01 0.03 0.01 0.01 0.01 0.00 0.00 0.00 0.00 0.00 0.00
0.00 0.00 0.00 0.00 0.00 0.00 0.00 0.00 0.00 0.00 0.00 0.00 0.00 0.00 0.00 0.00 0.00 0.00 0.00 0.00 0.00 0.00 0.00 0.00 0.02 0.09 0.25 0.18 0.04 0.00 0.00 0.00 0.00 0.00 0.00 0.00 0.00 0.02 0.01 0.03 0.02 0.02 0.02 0.01 0.00 0.00 0.00 0.00 0.01
0.00 0.00 0.00 0.00 0.00 0.00 0.00 0.00 0.00 0.00 0.00 0.00 0.00 0.00 0.00 0.00 0.00 0.00 0.00 0.00 0.00 0.00 0.00 0.00 0.00 0.04 0.14 0.25 0.31 0.22 0.01 0.00 0.00 0.00 0.00 0.00 0.00 0.01 0.01 0.02 0.03 0.01 0.02 0.01 0.01 0.01 0.01 0.01 0.01
0.00 0.00 0.00 0.00 0.00 0.00 0.00 0.00 0.00 0.00 0.00 0.00 0.00 0.00 0.00 0.00 0.00 0.00 0.00 0.00 0.00 0.00 0.00 0.00 0.00 0.00 0.05 0.21 0.09 0.17 0.15 0.06 0.00 0.00 0.00 0.00 0.00 0.00 0.01 0.01 0.01 0.02 0.03 0.03 0.02 0.01 0.02 0.01 0.01
0.00 0.00 0.00 0.00 0.00 0.00 0.00 0.00 0.00 0.00 0.00 0.00 0.00 0.00 0.00 0.00 0.00 0.00 0.00 0.00 0.00 0.00 0.00 0.00 0.00 0.00 0.00 0.07 0.13 0.10 0.22 0.25 0.10 0.01 0.00 0.00 0.00 0.00 0.01 0.00 0.01 0.01 0.01 0.03 0.02 0.03 0.02 0.02 0.02
0.00 0.00 0.00 0.00 0.00 0.00 0.00 0.00 0.00 0.00 0.00 0.00 0.00 0.00 0.00 0.00 0.00 0.00 0.00 0.00 0.00 0.00 0.00 0.00 0.00 0.00 0.00 0.04 0.18 0.12 0.16 0.29 0.19 0.08 0.00 0.00 0.00 0.00 0.01 0.01 0.00 0.01 0.02 0.01 0.01 0.01 0.01 0.01 0.02
0.00 0.00 0.00 0.00 0.00 0.00 0.00 0.00 0.00 0.00 0.00 0.00 0.00 0.00 0.00 0.00 0.00 0.00 0.00 0.00 0.00 0.00 0.00 0.00 0.00 0.00 0.00 0.06 0.11 0.12 0.12 0.20 0.15 0.10 0.03 0.01 0.00 0.00 0.01 0.01 0.00 0.00 0.01 0.01 0.00 0.01 0.00 0.01 0.02
0.00 0.00 0.00 0.00 0.00 0.00 0.00 0.00 0.00 0.00 0.00 0.00 0.00 0.00 0.00 0.00 0.00 0.00 0.00 0.00 0.00 0.00 0.00 0.00 0.00 0.00 0.00 0.03 0.16 0.20 0.30 0.27 0.25 0.25 0.17 0.10 0.01 0.01 0.00 0.00 0.00 0.01 0.00 0.01 0.01 0.00 0.01 0.01 0.02
0.00 0.00 0.00 0.00 0.00 0.00 0.00 0.00 0.00 0.00 0.00 0.00 0.00 0.00 0.00 0.00 0.00 0.00 0.00 0.00 0.00 0.00 0.00 0.00 0.00 0.00 0.00 0.04 0.16 0.16 0.15 0.16 0.17 0.20 0.25 0.21 0.07 0.00 0.00 0.00 0.00 0.00 0.01 0.01 0.02 0.03 0.03 0.04 0.04
0.00 0.00 0.00 0.00 0.00 0.00 0.00 0.00 0.00 0.00 0.00 0.00 0.00 0.00 0.00 0.00 0.00 0.00 0.00 0.00 0.00 0.00 0.00 0.00 0.00 0.00 0.01 0.00 0.05 0.18 0.21 0.20 0.16 0.13 0.21 0.28 0.15 0.03 0.00 0.00 0.00 0.00 0.00 0.01 0.03 0.04 0.06 0.08 0.08
0.00 0.00 0.00 0.00 0.00 0.00 0.02 0.00 0.00 0.00 0.00 0.00 0.00 0.00 0.00 0.00 0.00 0.00 0.00 0.00 0.00 0.00 0.00 0.00 0.00 0.00 0.02 0.01 0.15 0.29 0.28 0.33 0.33 0.25 0.10 0.06 0.14 0.03 0.01 0.00 0.00 0.00 0.01 0.01 0.01 0.02 0.03 0.04 0.05
0.00 0.00 0.00 0.00 0.00 0.00 0.05 0.06 0.00 0.00 0.00 0.00 0.00 0.00 0.00 0.00 0.00 0.00 0.00 0.00 0.00 0.00 0.00 0.00 0.00 0.00 0.05 0.18 0.33 0.31 0.24 0.25 0.11 0.06 0.09 0.12 0.23 0.12 0.02 0.01 0.00 0.00 0.00 0.00 0.01 0.01 0.02 0.03 0.04
0.01 0.01 0.00 0.01 0.02 0.01 0.02 0.06 0.00 0.01 0.08 0.06 0.03 0.02 0.01 0.01 0.02 0.01 0.01 0.01 0.00 0.00 0.00 0.00 0.01 0.10 0.13 0.19 0.48 0.54 0.50 0.26 0.15 0.16 0.27 0.30 0.31 0.39 0.18 0.08 0.05 0.04 0.05 0.04 0.01 0.01 0.02 0.03 0.04
0.01 0.01 0.02 0.05 0.06 0.04 0.00 0.02 0.07 0.51 0.50 0.32 0.17 0.10 0.07 0.06 0.05 0.04 0.04 0.04 0.03 0.04 0.04 0.01 0.01 0.02 0.12 0.16 0.31 0.60 0.97 1.33 1.50 1.21 0.79 0.60 0.67 0.66 0.51 0.30 0.25 0.24 0.23 0.14 0.05 0.03 0.02 0.06 0.05
0.02 0.04 0.05 0.04 0.07 0.01 0.02 0.04 0.22 0.45 0.43 0.35 0.29 0.20 0.17 0.12 0.10 0.09 0.08 0.07 0.07 0.09 0.13 0.14 0.08 0.05 0.03 0.06 0.13 0.22 0.38 0.68 1.16 1.83 2.56 2.53 2.10 1.80 1.68 0.94 0.44 0.25 0.12 0.08 0.09 0.07 0.04 0.07 0.10
0.01 0.02 0.02 0.04 0.03 0.04 0.05 0.21 0.66 0.57 0.79 0.52 0.74 0.44 0.32 0.24 0.16 0.12 0.13 0.12 0.12 0.13 0.17 0.21 0.21 0.20 0.11 0.09 0.13 0.22 0.24 0.30 0.55 0.70 1.08 1.94 2.61 2.30 2.49 2.55 1.73 1.06 0.58 0.42 0.37 0.23 0.13 0.08 0.12
0.05 0.01 0.00 0.03 0.08 0.10 0.25 0.69 0.59 0.46 0.76 1.49 0.84 0.48 0.64 0.60 0.35 0.20 0.18 0.24 0.32 0.27 0.22 0.31 0.35 0.48 0.40 0.25 0.18 0.23 0.26 0.24 0.27 0.38 0.78 1.01 0.97 1.21 1.51 1.57 1.23 1.39 1.52 1.05 0.64 0.50 0.47 0.40 0.19
0.05 0.05 0.08 0.06 0.08 0.18 0.34 0.43 0.45 0.39 0.82 0.86 1.17 1.25 0.67 0.75 0.61 0.34 0.26 0.32 0.32 0.42 0.28 0.37 0.62 0.91 0.64 0.56 0.43 0.38 0.36 0.28 0.25 0.18 0.25 0.57 1.06 1.12 0.93 0.82 0.65 0.64 0.75 0.83 0.45 0.28 0.29 0.32 0.29
0.08 0.03 0.03 0.06 0.12 0.29 0.60 0.52 0.77 0.87 1.08 1.32 1.06 1.15 1.30 0.79 1.07 0.81 0.49 0.44 0.59 0.77 0.33 0.39 0.75 1.49 1.25 0.80 0.54 0.58 0.34 0.47 0.27 0.20 0.17 0.34 0.48 0.72 0.75 0.67 0.52 0.43 0.35 0.31 0.22 0.14 0.12 0.18 0.21
0.12 0.08 0.06 0.13 0.18 0.24 0.75 0.71 0.91 1.10 0.93 0.77 0.80 0.75 0.76 0.86 0.91 1.19 0.94 0.76 0.77 0.42 0.44 0.40 0.43 0.47 1.29 1.04 0.72 0.54 0.31 0.30 0.33 0.27 0.22 0.20 0.24 0.29 0.37 0.43 0.46 0.35 0.24 0.19 0.17 0.16 0.14 0.14 0.17

GFSSGP_prec_precacc24_138.txt.gz
Total_Precipitation_Accumulation
0.00 0.00 0.00 0.00 0.00 0.00 0.00 0.00 0.00 0.00 0.00 0.00 0.00 0.00 0.00 0.00 0.00 0.00 0.00 0.00 0.00 0.00 0.00 0.00 0.00 0.00 0.00 0.00 0.00 0.00 0.00 0.00 0.00 0.00 0.00 0.00 0.00 0.00 0.00 0.00 0.00 0.00 0.00 0.00 0.00 0.00 0.02 0.02 0.00
0.00 0.00 0.00 0.00 0.00 0.00 0.00 0.00 0.00 0.00 0.00 0.00 0.00 0.00 0.00 0.00 0.00 0.00 0.00 0.00 0.00 0.00 0.00 0.00 0.00 0.00 0.00 0.00 0.00 0.00 0.00 0.00 0.00 0.00 0.00 0.00 0.00 0.00 0.00 0.00 0.00 0.00 0.00 0.00 0.00 0.00 0.00 0.00 0.00
0.00 0.00 0.00 0.00 0.00 0.00 0.00 0.00 0.00 0.00 0.00 0.00 0.00 0.00 0.00 0.00 0.00 0.00 0.00 0.00 0.00 0.00 0.00 0.00 0.00 0.00 0.00 0.00 0.00 0.00 0.00 0.00 0.00 0.00 0.00 0.00 0.00 0.00 0.00 0.00 0.00 0.00 0.00 0.00 0.00 0.00 0.00 0.00 0.00
0.00 0.00 0.00 0.00 0.00 0.00 0.00 0.00 0.00 0.00 0.00 0.00 0.00 0.00 0.00 0.00 0.00 0.00 0.00 0.00 0.00 0.00 0.00 0.00 0.00 0.00 0.00 0.00 0.00 0.00 0.00 0.00 0.00 0.00 0.00 0.00 0.00 0.00 0.00 0.00 0.00 0.02 0.01 0.01 0.01 0.00 0.00 0.00 0.00
0.00 0.00 0.00 0.00 0.00 0.00 0.00 0.00 0.00 0.00 0.00 0.00 0.00 0.00 0.00 0.00 0.00 0.00 0.00 0.00 0.00 0.00 0.00 0.00 0.00 0.00 0.00 0.00 0.00 0.00 0.00 0.00 0.00 0.00 0.00 0.00 0.00 0.00 0.00 0.00 0.00 0.00 0.01 0.00 0.01 0.00 0.00 0.00 0.00
0.00 0.00 0.00 0.00 0.00 0.00 0.00 0.00 0.00 0.00 0.00 0.00 0.00 0.00 0.00 0.00 0.00 0.00 0.00 0.00 0.00 0.00 0.00 0.00 0.01 0.01 0.00 0.00 0.00 0.00 0.00 0.00 0.00 0.00 0.00 0.00 0.00 0.00 0.00 0.00 0.00 0.01 0.01 0.01 0.01 0.00 0.00 0.00 0.00
0.00 0.00 0.00 0.00 0.00 0.00 0.00 0.00 0.00 0.00 0.00 0.00 0.00 0.00 0.00 0.00 0.00 0.00 0.00 0.00 0.00 0.00 0.00 0.00 0.00 0.00 0.00 0.00 0.00 0.00 0.00 0.00 0.00 0.00 0.00 0.00 0.00 0.00 0.00 0.00 0.00 0.00 0.01 0.01 0.00 0.00 0.00 0.00 0.00
0.00 0.00 0.00 0.00 0.00 0.00 0.00 0.00 0.00 0.00 0.00 0.00 0.00 0.00 0.00 0.00 0.00 0.00 0.00 0.00 0.00 0.00 0.00 0.01 0.00 0.00 0.00 0.00 0.00 0.00 0.00 0.00 0.00 0.00 0.00 0.00 0.00 0.00 0.00 0.00 0.00 0.00 0.01 0.00 0.00 0.00 0.00 0.02 0.07
0.00 0.00 0.00 0.00 0.00 0.00 0.00 0.00 0.00 0.00 0.00 0.00 0.00 0.00 0.00 0.00 0.00 0.00 0.00 0.00 0.00 0.01 0.01 0.01 0.02 0.00 0.00 0.01 0.00 0.00 0.00 0.00 0.00 0.00 0.00 0.00 0.00 0.00 0.00 0.00 0.01 0.04 0.01 0.00 0.00 0.00 0.00 0.03 0.02
0.00 0.00 0.00 0.00 0.00 0.00 0.00 0.00 0.00 0.00 0.00 0.00 0.00 0.00 0.00 0.00 0.00 0.00 0.00 0.00 0.00 0.00 0.00 0.00 0.01 0.02 0.00 0.01 0.01 0.00 0.00 0.00 0.00 0.00 0.00 0.00 0.00 0.00 0.00 0.00 0.02 0.07 0.08 0.00 0.00 0.00 0.00 0.01 0.00
0.00 0.00 0.00 0.00 0.00 0.00 0.00 0.00 0.00 0.00 0.00 0.00 0.00 0.00 0.00 0.00 0.00 0.00 0.00 0.00 0.00 0.00 0.00 0.00 0.01 0.04 0.05 0.02 0.02 0.01 0.02 0.00 0.00 0.00 0.00 0.00 0.00 0.02 0.01 0.03 0.01 0.01 0.01 0.00 0.00 0.00 0.00 0.00 0.00
0.00 0.00 0.00 0.00 0.00 0.00 0.00 0.00 0.00 0.00 0.00 0.00 0.00 0.00 0.00 0.00 0.00 0.00 0.00 0.00 0.00 0.00 0.00 0.00 0.02 0.09 0.27 0.27 0.13 0.07 0.05 0.03 0.00 0.00 0.00 0.00 0.00 0.02 0.01 0.03 0.02 0.02 0.02 0.01 0.00 0.00 0.00 0.00 0.00
0.00 0.00 0.00 0.00 0.00 0.00 0.00 0.00 0.00 0.00 0.00 0.00 0.00 0.00 0.00 0.00 0.00 0.00 0.00 0.00 0.00 0.00 0.00 0.00 0.00 0.04 0.14 0.26 0.40 0.35 0.09 0.10 0.07 0.01 0.00 0.00 0.00 0.01 0.01 0.02 0.02 0.01 0.02 0.01 0.01 0.01 0.01 0.00 0.00
0.00 0.00 0.00 0.00 0.00 0.00 0.00 0.00 0.00 0.00 0.00 0.00 0.00 0.00 0.00 0.00 0.00 0.00 0.00 0.00 0.00 0.00 0.00 0.00 0.00 0.00 0.05 0.21 0.10 0.26 0.32 0.26 0.19 0.09 0.03 0.00 0.00 0.00 0.01 0.01 0.01 0.01 0.02 0.02 0.02 0.01 0.02 0.01 0.01
0.00 0.00 0.00 0.00 0.00 0.00 0.00 0.00 0.00 0.00 0.00 0.00 0.00 0.00 0.00 0.00 0.00 0.00 0.00 0.00 0.00 0.00 0.00 0.00 0.00 0.00 0.00 0.07 0.13 0.11 0.30 0.48 0.31 0.17 0.14 0.06 0.02 0.00 0.01 0.00 0.01 0.01 0.01 0.02 0.02 0.03 0.02 0.02 0.02
0.00 0.00 0.00 0.00 0.00 0.00 0.00 0.00 0.00 0.00 0.00 0.00 0.00 0.00 0.00 0.00 0.00 0.00 0.00 0.00 0.00 0.00 0.00 0.00 0.00 0.00 0.00 0.04 0.18 0.12 0.16 0.35 0.32 0.29 0.15 0.11 0.04 0.02 0.01 0.01 0.00 0.01 0.02 0.01 0.01 0.01 0.01 0.01 0.03
0.00 0.00 0.00 0.00 0.00 0.00 0.00 0.00 0.00 0.00 0.00 0.00 0.00 0.00 0.00 0.00 0.00 0.00 0.00 0.00 0.00 0.00 0.00 0.00 0.00 0.00 0.00 0.06 0.11 0.12 0.12 0.22 0.22 0.18 0.31 0.33 0.24 0.13 0.04 0.01 0.00 0.00 0.01 0.01 0.00 0.01 0.00 0.01 0.02
0.00 0.00 0.00 0.00 0.00 0.00 0.00 0.00 0.00 0.00 0.00 0.00 0.00 0.00 0.00 0.00 0.00 0.00 0.00 0.00 0.00 0.00 0.00 0.00 0.00 0.00 0.00 0.03 0.15 0.20 0.30 0.27 0.26 0.31 0.38 0.45 0.41 0.36 0.16 0.04 0.00 0.00 0.00 0.01 0.01 0.00 0.00 0.00 0.01
0.00 0.00 0.00 0.00 0.00 0.00 0.00 0.00 0.00 0.00 0.00 0.00 0.00 0.00 0.00 0.00 0.00 0.00 0.00 0.00 0.00 0.00 0.00 0.00 0.00 0.00 0.00 0.04 0.14 0.16 0.15 0.16 0.17 0.20 0.32 0.47 0.57 0.54 0.34 0.15 0.04 0.01 0.01 0.01 0.01 0.02 0.02 0.03 0.03
0.00 0.00 0.00 0.00 0.00 0.00 0.00 0.00 0.00 0.00 0.00 0.00 0.00 0.00 0.00 0.00 0.00 0.00 0.00 0.00 0.00 0.00 0.00 0.00 0.00 0.00 0.01 0.00 0.04 0.14 0.19 0.20 0.16 0.13 0.22 0.35 0.30 0.41 0.54 0.35 0.08 0.02 0.02 0.01 0.02 0.04 0.04 0.06 0.06
0.00 0.00 0.00 0.00 0.00 0.00 0.00 0.00 0.00 0.00 0.00 0.00 0.00 0.00 0.00 0.00 0.00 0.00 0.00 0.00 0.00 0.00 0.00 0.00 0.00 0.00 0.02 0.01 0.09 0.21 0.22 0.30 0.32 0.25 0.10 0.07 0.20 0.20 0.32 0.36 0.10 0.03 0.02 0.01 0.01 0.01 0.02 0.03 0.05
0.00 0.00 0.00 0.00 0.00 0.00 0.02 0.04 0.00 0.00 0.00 0.00 0.00 0.00 0.00 0.00 0.00 0.00 0.00 0.00 0.00 0.00 0.00 0.00 0.00 0.00 0.04 0.17 0.33 0.30 0.24 0.25 0.11 0.06 0.10 0.12 0.26 0.27 0.26 0.25 0.16 0.09 0.03 0.01 0.00 0.01 0.02 0.02 0.03
0.00 0.01 0.00 0.01 0.01 0.00 0.01 0.02 0.00 0.01 0.08 0.06 0.03 0.02 0.01 0.01 0.02 0.01 0.01 0.01 0.00 0.00 0.00 0.00 0.00 0.00 0.02 0.11 0.44 0.53 0.49 0.26 0.15 0.16 0.27 0.30 0.32 0.44 0.40 0.40 0.38 0.30 0.15 0.08 0.03 0.01 0.02 0.03 0.03
0.00 0.00 0.00 0.01 0.01 0.01 0.00 0.01 0.07 0.50 0.50 0.32 0.17 0.10 0.07 0.06 0.05 0.04 0.04 0.04 0.03 0.04 0.04 0.01 0.01 0.00 0.01 0.05 0.17 0.48 0.90 1.32 1.49 1.21 0.79 0.59 0.67 0.69 0.69 0.62 0.65 0.98 0.78 0.25 0.09 0.05 0.03 0.06 0.05
0.00 0.00 0.03 0.01 0.03 0.00 0.02 0.04 0.22 0.38 0.36 0.34 0.29 0.20 0.17 0.12 0.10 0.09 0.08 0.07 0.07 0.09 0.13 0.14 0.08 0.05 0.03 0.05 0.11 0.20 0.36 0.65 1.16 1.84 2.57 2.53 2.09 1.83 1.80 1.67 1.38 1.27 1.23 0.73 0.16 0.12 0.08 0.09 0.12
0.00 0.00 0.02 0.02 0.02 0.04 0.05 0.21 0.65 0.52 0.63 0.45 0.70 0.43 0.32 0.24 0.16 0.12 0.13 0.12 0.12 0.14 0.17 0.22 0.22 0.21 0.12 0.09 0.13 0.22 0.24 0.28 0.56 0.71 1.09 1.97 2.66 2.33 2.57 2.88 3.02 2.41 1.84 1.74 0.82 0.37 0.22 0.12 0.16
0.03 0.00 0.00 0.00 0.03 0.08 0.25 0.69 0.56 0.37 0.69 1.40 0.80 0.46 0.63 0.60 0.34 0.20 0.18 0.24 0.32 0.27 0.24 0.35 0.39 0.50 0.42 0.28 0.21 0.24 0.28 0.23 0.28 0.41 0.81 1.04 1.00 1.27 1.59 1.71 1.97 2.59 2.73 2.17 1.50 1.00 0.78 0.66 0.47
0.03 0.05 0.07 0.06 0.06 0.16 0.33 0.41 0.38 0.29 0.48 0.78 1.16 1.23 0.66 0.75 0.61 0.34 0.26 0.33 0.33 0.43 0.30 0.40 0.65 0.95 0.67 0.60 0.50 0.44 0.40 0.30 0.30 0.25 0.35 0.61 1.09 1.16 1.00 1.07 1.13 1.09 1.13 1.28 1.48 1.50 1.28 1.29 1.05
0.06 0.02 0.03 0.06 0.10 0.22 0.37 0.30 0.26 0.29 0.47 0.69 0.91 1.08 1.29 0.79 1.07 0.81 0.49 0.45 0.60 0.78 0.35 0.42 0.78 1.53 1.35 0.90 0.71 0.73 0.50 0.65 0.44 0.35 0.31 0.42 0.54 0.76 0.83 0.80 0.80 0.78 0.71 0.69 0.73 0.70 0.88 1.25 1.49
0.10 0.07 0.05 0.11 0.09 0.15 0.37 0.38 0.36 0.37 0.42 0.40 0.55 0.64 0.71 0.85 0.91 1.20 0.94 0.76 0.77 0.42 0.45 0.43 0.48 0.55 1.52 1.40 1.08 0.89 0.90 1.07 0.60 0.39 0.29 0.22 0.30 0.43 0.45 0.48 0.53 0.57 0.56 0.58 0.55 0.63 0.59 0.53 0.60

GFSSGP_prec_precacc24_141.txt.gz
Total_Precipitation_Accumulation
0.00 0.00 0.00 0.00 0.00 0.00 0.00 0.00 0.00 0.00 0.00 0.00 0.00 0.00 0.00 0.00 0.00 0.00 0.00 0.00 0.00 0.00 0.00 0.00 0.00 0.00 0.00 0.00 0.00 0.00 0.00 0.00 0.00 0.00 0.00 0.00 0.00 0.00 0.00 0.00 0.00 0.00 0.00 0.00 0.00 0.00 0.02 0.01 0.01
0.00 0.00 0.00 0.00 0.00 0.00 0.00 0.00 0.00 0.00 0.00 0.00 0.00 0.00 0.00 0.00 0.00 0.00 0.00 0.00 0.00 0.00 0.00 0.00 0.00 0.00 0.00 0.00 0.00 0.00 0.00 0.00 0.00 0.00 0.00 0.00 0.00 0.00 0.00 0.00 0.00 0.00 0.00 0.00 0.00 0.00 0.00 0.00 0.00
0.00 0.00 0.00 0.00 0.00 0.00 0.00 0.00 0.00 0.00 0.00 0.00 0.00 0.00 0.00 0.00 0.00 0.00 0.00 0.00 0.00 0.00 0.00 0.00 0.00 0.00 0.00 0.00 0.00 0.00 0.00 0.00 0.00 0.00 0.00 0.00 0.00 0.00 0.00 0.00 0.00 0.00 0.00 0.00 0.00 0.00 0.00 0.00 0.00
0.00 0.00 0.00 0.00 0.00 0.00 0.00 0.00 0.00 0.00 0.00 0.00 0.00 0.00 0.00 0.00 0.00 0.00 0.00 0.00 0.00 0.00 0.00 0.00 0.01 0.00 0.00 0.00 0.00 0.00 0.00 0.00 0.00 0.00 0.00 0.00 0.00 0.00 0.00 0.00 0.00 0.00 0.00 0.00 0.00 0.00 0.00 0.00 0.00
0.00 0.00 0.00 0.00 0.00 0.00 0.00 0.00 0.00 0.00 0.00 0.00 0.00 0.00 0.00 0.00 0.00 0.00 0.00 0.00 0.00 0.00 0.00 0.00 0.00 0.00 0.00 0.00 0.00 0.00 0.00 0.00 0.00 0.00 0.00 0.00 0.00 0.00 0.00 0.00 0.00 0.00 0.00 0.00 0.00 0.00 0.00 0.00 0.00
0.00 0.00 0.00 0.00 0.00 0.00 0.00 0.00 0.00 0.00 0.00 0.00 0.00 0.00 0.00 0.00 0.00 0.00 0.00 0.00 0.00 0.00 0.00 0.00 0.01 0.01 0.00 0.00 0.00 0.00 0.00 0.00 0.00 0.00 0.00 0.00 0.00 0.00 0.00 0.00 0.00 0.01 0.01 0.00 0.00 0.00 0.00 0.00 0.00
0.00 0.00 0.00 0.00 0.00 0.00 0.00 0.00 0.00 0.00 0.00 0.00 0.00 0.00 0.00 0.00 0.00 0.00 0.00 0.00 0.00 0.00 0.00 0.00 0.00 0.00 0.00 0.00 0.01 0.00 0.00 0.00 0.00 0.00 0.00 0.00 0.00 0.00 0.00 0.00 0.00 0.00 0.01 0.00 0.00 0.00 0.00 0.00 0.00
0.00 0.00 0.00 0.00 0.00 0.00 0.00 0.00 0.00 0.00 0.00 0.00 0.00 0.00 0.00 0.00 0.00 0.00 0.00 0.00 0.00 0.00 0.00 0.01 0.00 0.00 0.00 0.00 0.00 0.01 0.01 0.00 0.00 0.00 0.00 0.00 0.00 0.00 0.00 0.00 0.00 0.00 0.01 0.00 0.00 0.00 0.00 0.00 0.00
0.00 0.00 0.00 0.00 0.00 0.00 0.00 0.00 0.00 0.00 0.00 0.00 0.00 0.00 0.00 0.00 0.00 0.00 0.00 0.00 0.00 0.01 0.01 0.01 0.02 0.01 0.00 0.01 0.00 0.00 0.06 0.03 0.01 0.00 0.00 0.00 0.00 0.00 0.00 0.00 0.01 0.04 0.01 0.00 0.00 0.00 0.00 0.00 0.00
0.00 0.00 0.00 0.00 0.00 0.00 0.00 0.00 0.00 0.00 0.00 0.00 0.00 0.00 0.00 0.00 0.00 0.00 0.00 0.00 0.00 0.00 0.00 0.00 0.01 0.02 0.00 0.01 0.02 0.01 0.03 0.06 0.04 0.00 0.00 0.00 0.00 0.00 0.00 0.00 0.01 0.07 0.08 0.00 0.00 0.00 0.00 0.00 0.00
0.00 0.00 0.00 0.00 0.00 0.00 0.00 0.00 0.00 0.00 0.00 0.00 0.00 0.00 0.00 0.00 0.00 0.00 0.00 0.00 0.00 0.00 0.00 0.00 0.01 0.04 0.05 0.02 0.02 0.03 0.04 0.02 0.03 0.03 0.01 0.01 0.00 0.02 0.01 0.03 0.00 0.01 0.01 0.00 0.00 0.00 0.00 0.00 0.00
0.00 0.00 0.00 0.00 0.00 0.00 0.00 0.00 0.00 0.00 0.00 0.00 0.00 0.00 0.00 0.00 0.00 0.00 0.00 0.00 0.00 0.00 0.00 0.00 0.02 0.09 0.27 0.27 0.13 0.09 0.11 0.07 0.01 0.00 0.06 0.03 0.02 0.02 0.01 0.03 0.02 0.02 0.02 0.01 0.00 0.00 0.00 0.00 0.00
0.00 0.00 0.00 0.00 0.00 0.00 0.00 0.00 0.00 0.00 0.00 0.00 0.00 0.00 0.00 0.00 0.00 0.00 0.00 0.00 0.00 0.00 0.00 0.00 0.00 0.04 0.14 0.26 0.40 0.35 0.12 0.16 0.15 0.06 0.05 0.05 0.04 0.03 0.03 0.02 0.02 0.01 0.02 0.01 0.01 0.01 0.01 0.00 0.00
0.00 0.00 0.00 0.00 0.00 0.00 0.00 0.00 0.00 0.00 0.00 0.00 0.00 0.00 0.00 0.00 0.00 0.00 0.00 0.00 0.00 0.00 0.00 0.00 0.00 0.00 0.05 0.21 0.10 0.26 0.32 0.28 0.26 0.17 0.09 0.11 0.09 0.04 0.02 0.02 0.02 0.01 0.02 0.02 0.02 0.01 0.02 0.01 0.01
0.00 0.00 0.00 0.00 0.00 0.00 0.00 0.00 0.00 0.00 0.00 0.00 0.00 0.00 0.00 0.00 0.00 0.00 0.00 0.00 0.00 0.00 0.00 0.00 0.00 0.00 0.00 0.07 0.13 0.11 0.30 0.48 0.33 0.22 0.20 0.14 0.16 0.08 0.04 0.02 0.02 0.01 0.01 0.02 0.02 0.03 0.02 0.02 0.02
0.00 0.00 0.00 0.00 0.00 0.00 0.00 0.00 0.00 0.00 0.00 0.00 0.00 0.00 0.00 0.00 0.00 0.00 0.00 0.00 0.00 0.00 0.00 0.00 0.00 0.00 0.00 0.04 0.18 0.12 0.16 0.35 0.32 0.30 0.17 0.15 0.09 0.11 0.09 0.04 0.02 0.02 0.02 0.01 0.01 0.01 0.01 0.01 0.03
0.00 0.00 0.00 0.00 0.00 0.00 0.00 0.00 0.00 0.00 0.00 0.00 0.00 0.00 0.00 0.00 0.00 0.00 0.00 0.00 0.00 0.00 0.00 0.00 0.00 0.00 0.00 0.06 0.11 0.12 0.12 0.22 0.22 0.18 0.32 0.37 0.32 0.31 0.24 0.13 0.08 0.06 0.01 0.01 0.00 0.01 0.00 0.01 0.02
0.00 0.00 0.00 0.00 0.00 0.00 0.00 0.00 0.00 0.00 0.00 0.00 0.00 0.00 0.00 0.00 0.00 0.00 0.00 0.00 0.00 0.00 0.00 0.00 0.00 0.00 0.00 0.03 0.15 0.20 0.30 0.27 0.26 0.31 0.38 0.47 0.46 0.54 0.53 0.41 0.21 0.11 0.03 0.02 0.01 0.00 0.00 0.00 0.01
0.00 0.00 0.00 0.00 0.00 0.00 0.00 0.00 0.00 0.00 0.00 0.00 0.00 0.00 0.00 0.00 0.00 0.00 0.00 0.00 0.00 0.00 0.00 0.00 0.00 0.00 0.00 0.04 0.14 0.16 0.15 0.16 0.17 0.20 0.32 0.48 0.59 0.64 0.85 0.84 0.67 0.33 0.13 0.05 0.03 0.04 0.03 0.02 0.02
0.00 0.00 0.00 0.00 0.00 0.00 0.00 0.00 0.00 0.00 0.00 0.00 0.00 0.00 0.00 0.00 0.00 0.00 0.00 0.00 0.00 0.00 0.00 0.00 0.00 0.00 0.01 0.00 0.04 0.13 0.18 0.17 0.10 0.09 0.22 0.35 0.30 0.43 0.67 0.85 0.94 1.06 0.46 0.18 0.10 0.05 0.04 0.05 0.05
0.00 0.00 0.00 0.00 0.00 0.00 0.00 0.00 0.00 0.00 0.00 0.00 0.00 0.00 0.00 0.00 0.00 0.00 0.00 0.00 0.00 0.00 0.00 0.00 0.00 0.00 0.02 0.01 0.09 0.20 0.18 0.19 0.20 0.21 0.10 0.07 0.20 0.20 0.36 0.67 0.71 0.64 0.66 0.47 0.18 0.09 0.05 0.03 0.04
0.00 0.00 0.00 0.00 0.00 0.00 0.00 0.03 0.00 0.00 0.00 0.00 0.00 0.00 0.00 0.00 0.00 0.00 0.00 0.00 0.00 0.00 0.00 0.00 0.00 0.00 0.04 0.15 0.32 0.29 0.23 0.25 0.11 0.06 0.10 0.12 0.26 0.28 0.28 0.34 0.38 0.67 0.81 0.40 0.22 0.17 0.12 0.08 0.03
0.00 0.00 0.00 0.00 0.00 0.00 0.00 0.01 0.00 0.01 0.07 0.05 0.03 0.02 0.01 0.01 0.02 0.01 0.01 0.01 0.00 0.00 0.00 0.00 0.00 0.00 0.01 0.09 0.41 0.48 0.42 0.22 0.15 0.16 0.27 0.30 0.31 0.44 0.41 0.42 0.44 0.51 0.56 0.46 0.38 0.24 0.13 0.08 0.06
0.00 0.00 0.00 0.00 0.00 0.01 0.00 0.01 0.04 0.42 0.44 0.29 0.17 0.10 0.07 0.06 0.05 0.04 0.04 0.04 0.03 0.04 0.04 0.01 0.01 0.00 0.00 0.02 0.13 0.43 0.82 1.24 1.41 1.17 0.77 0.58 0.64 0.67 0.69 0.63 0.67 1.08 1.19 0.85 0.50 0.61 0.38 0.19 0.14
0.00 0.00 0.00 0.00 0.01 0.00 0.00 0.02 0.17 0.34 0.31 0.31 0.28 0.20 0.17 0.12 0.10 0.09 0.08 0.07 0.07 0.09 0.13 0.14 0.08 0.05 0.02 0.03 0.08 0.18 0.33 0.62 1.13 1.79 2.52 2.50 2.08 1.83 1.81 1.66 1.39 1.31 1.42 1.72 0.94 0.64 0.74 0.49 0.32
0.00 0.00 0.00 0.02 0.01 0.03 0.03 0.18 0.48 0.47 0.35 0.41 0.70 0.43 0.32 0.24 0.16 0.12 0.13 0.12 0.12 0.14 0.17 0.22 0.22 0.21 0.13 0.10 0.13 0.22 0.23 0.27 0.55 0.71 1.09 1.97 2.69 2.35 2.59 2.88 3.02 2.45 1.94 2.10 1.99 1.22 0.97 0.94 0.57
0.00 0.00 0.00 0.00 0.01 0.05 0.24 0.59 0.36 0.23 0.35 0.78 0.63 0.43 0.60 0.58 0.34 0.19 0.18 0.24 0.32 0.27 0.24 0.36 0.41 0.52 0.43 0.30 0.22 0.25 0.29 0.23 0.27 0.40 0.79 1.04 1.03 1.31 1.64 1.73 1.99 2.62 2.79 2.31 2.09 1.80 1.37 1.28 1.16
0.00 0.01 0.04 0.05 0.05 0.12 0.29 0.37 0.31 0.20 0.24 0.47 0.87 1.03 0.59 0.71 0.60 0.33 0.26 0.33 0.33 0.43 0.30 0.41 0.67 0.97 0.71 0.63 0.53 0.47 0.43 0.31 0.32 0.23 0.36 0.65 1.13 1.19 1.03 1.08 1.14 1.10 1.22 1.41 1.73 1.90 1.72 1.61 1.48
0.03 0.02 0.02 0.05 0.08 0.19 0.23 0.23 0.17 0.19 0.29 0.52 0.67 0.97 1.25 0.77 1.06 0.81 0.49 0.45 0.60 0.78 0.35 0.43 0.78 1.55 1.37 0.95 0.78 0.77 0.53 0.68 0.47 0.40 0.38 0.51 0.58 0.82 0.88 0.83 0.82 0.80 0.73 0.79 0.93 0.90 1.12 1.49 1.65
0.04 0.05 0.06 0.14 0.08 0.13 0.21 0.25 0.20 0.21 0.24 0.26 0.31 0.38 0.58 0.81 0.91 1.20 0.94 0.76 0.77 0.42 0.45 0.43 0.48 0.57 1.58 1.52 1.22 1.05 1.02 1.24 0.75 0.63 0.51 0.51 0.53 0.46 0.47 0.49 0.54 0.60 0.63 0.70 0.75 0.83 0.78 0.76 0.83

GFSSGP_prec_precacc24_144.txt.gz
Total_Precipitation_Accumulation
0.00 0.00 0.00 0.00 0.00 0.00 0.00 0.00 0.00 0.00 0.00 0.00 0.00 0.00 0.00 0.00 0.00 0.00 0.00 0.00 0.00 0.00 0.00 0.00 0.00 0.00 0.00 0.00 0.00 0.00 0.00 0.00 0.00 0.00 0.00 0.00 0.00 0.00 0.00 0.00 0.00 0.00 0.00 0.00 0.00 0.00 0.02 0.01 0.01
0.00 0.00 0.00 0.00 0.00 0.00 0.00 0.00 0.00 0.00 0.00 0.00 0.00 0.00 0.00 0.00 0.00 0.00 0.00 0.00 0.00 0.00 0.00 0.00 0.00 0.00 0.00 0.00 0.00 0.00 0.00 0.00 0.00 0.00 0.00 0.00 0.00 0.00 0.00 0.00 0.00 0.00 0.00 0.00 0.00 0.00 0.00 0.00 0.00
0.00 0.00 0.00 0.00 0.00 0.00 0.00 0.00 0.00 0.00 0.00 0.00 0.00 0.00 0.00 0.00 0.00 0.00 0.00 0.01 0.01 0.00 0.00 0.00 0.00 0.00 0.00 0.00 0.00 0.00 0.00 0.00 0.00 0.00 0.00 0.00 0.00 0.00 0.00 0.00 0.00 0.00 0.00 0.00 0.00 0.00 0.00 0.00 0.00
0.00 0.00 0.00 0.00 0.00 0.00 0.00 0.00 0.00 0.00 0.00 0.00 0.00 0.00 0.00 0.00 0.00 0.00 0.00 0.00 0.00 0.00 0.00 0.00 0.01 0.00 0.00 0.00 0.00 0.00 0.00 0.00 0.00 0.00 0.00 0.00 0.00 0.00 0.00 0.00 0.00 0.00 0.00 0.00 0.00 0.00 0.00 0.00 0.00
0.00 0.00 0.00 0.00 0.00 0.00 0.00 0.00 0.00 0.00 0.00 0.00 0.00 0.00 0.00 0.00 0.00 0.00 0.00 0.00 0.00 0.00 0.00 0.00 0.00 0.00 0.00 0.00 0.00 0.00 0.00 0.00 0.00 0.00 0.00 0.00 0.00 0.00 0.00 0.00 0.00 0.00 0.00 0.00 0.00 0.00 0.00 0.00 0.00
0.00 0.00 0.00 0.00 0.00 0.00 0.00 0.00 0.00 0.00 0.00 0.00 0.00 0.00 0.00 0.00 0.00 0.00 0.00 0.00 0.00 0.00 0.00 0.00 0.01 0.01 0.00 0.01 0.01 0.00 0.00 0.00 0.00 0.00 0.00 0.00 0.00 0.00 0.00 0.00 0.00 0.00 0.00 0.00 0.00 0.00 0.00 0.00 0.00
0.00 0.00 0.00 0.00 0.00 0.00 0.00 0.00 0.00 0.00 0.00 0.00 0.00 0.00 0.00 0.00 0.00 0.00 0.00 0.00 0.00 0.00 0.00 0.00 0.00 0.00 0.00 0.00 0.01 0.03 0.04 0.05 0.01 0.00 0.00 0.00 0.00 0.00 0.00 0.00 0.00 0.00 0.00 0.00 0.00 0.00 0.00 0.00 0.00
0.00 0.00 0.00 0.00 0.00 0.00 0.00 0.00 0.00 0.00 0.00 0.00 0.00 0.00 0.00 0.00 0.00 0.00 0.00 0.00 0.00 0.00 0.00 0.01 0.00 0.00 0.00 0.00 0.00 0.07 0.10 0.09 0.05 0.02 0.00 0.00 0.00 0.00 0.00 0.00 0.00 0.00 0.01 0.00 0.00 0.00 0.00 0.00 0.00
0.00 0.00 0.00 0.00 0.00 0.00 0.00 0.00 0.00 0.00 0.00 0.00 0.00 0.00 0.00 0.00 0.00 0.00 0.00 0.00 0.00 0.01 0.01 0.01 0.02 0.01 0.00 0.01 0.00 0.04 0.12 0.09 0.09 0.09 0.09 0.03 0.00 0.00 0.00 0.00 0.01 0.04 0.01 0.00 0.00 0.00 0.00 0.00 0.00
0.00 0.00 0.00 0.00 0.00 0.00 0.00 0.00 0.00 0.00 0.00 0.00 0.00 0.00 0.00 0.00 0.00 0.00 0.00 0.00 0.00 0.00 0.00 0.00 0.01 0.02 0.00 0.01 0.02 0.01 0.05 0.07 0.06 0.06 0.10 0.12 0.05 0.01 0.00 0.00 0.01 0.07 0.08 0.00 0.00 0.00 0.00 0.00 0.00
0.00 0.00 0.00 0.00 0.00 0.00 0.00 0.00 0.00 0.00 0.00 0.00 0.00 0.00 0.00 0.00 0.00 0.00 0.00 0.00 0.00 0.00 0.00 0.00 0.01 0.04 0.05 0.02 0.02 0.02 0.03 0.03 0.04 0.04 0.04 0.05 0.05 0.04 0.01 0.03 0.00 0.01 0.01 0.00 0.00 0.00 0.00 0.00 0.00
0.00 0.00 0.00 0.00 0.00 0.00 0.00 0.00 0.00 0.00 0.00 0.00 0.00 0.00 0.00 0.00 0.00 0.00 0.00 0.00 0.00 0.00 0.00 0.00 0.02 0.09 0.27 0.27 0.13 0.09 0.10 0.07 0.02 0.01 0.07 0.07 0.07 0.08 0.04 0.03 0.02 0.02 0.01 0.01 0.00 0.00 0.00 0.00 0.00
0.00 0.00 0.00 0.00 0.00 0.00 0.00 0.00 0.00 0.00 0.00 0.00 0.00 0.00 0.00 0.00 0.00 0.00 0.00 0.00 0.00 0.00 0.00 0.00 0.00 0.04 0.14 0.26 0.40 0.35 0.12 0.16 0.15 0.07 0.06 0.08 0.09 0.10 0.10 0.05 0.05 0.02 0.02 0.01 0.01 0.00 0.01 0.00 0.00
0.00 0.00 0.00 0.00 0.00 0.00 0.00 0.00 0.00 0.00 0.00 0.00 0.00 0.00 0.00 0.00 0.00 0.00 0.00 0.00 0.00 0.00 0.00 0.00 0.00 0.00 0.05 0.21 0.10 0.26 0.32 0.28 0.26 0.17 0.09 0.15 0.16 0.15 0.17 0.09 0.05 0.03 0.03 0.02 0.02 0.01 0.02 0.01 0.00
0.00 0.00 0.00 0.00 0.00 0.00 0.00 0.00 0.00 0.00 0.00 0.00 0.00 0.00 0.00 0.00 0.00 0.00 0.00 0.00 0.00 0.00 0.00 0.00 0.00 0.00 0.00 0.07 0.13 0.11 0.30 0.48 0.33 0.22 0.20 0.14 0.20 0.18 0.22 0.22 0.13 0.02 0.02 0.05 0.03 0.03 0.02 0.02 0.02
0.00 0.00 0.00 0.00 0.00 0.00 0.00 0.00 0.00 0.00 0.00 0.00 0.00 0.00 0.00 0.00 0.00 0.00 0.00 0.00 0.00 0.00 0.00 0.00 0.00 0.00 0.00 0.04 0.17 0.12 0.16 0.35 0.32 0.30 0.17 0.15 0.10 0.16 0.21 0.28 0.24 0.21 0.08 0.03 0.01 0.02 0.01 0.01 0.03
0.00 0.00 0.00 0.00 0.00 0.00 0.00 0.00 0.00 0.00 0.00 0.00 0.00 0.00 0.00 0.00 0.00 0.00 0.00 0.00 0.00 0.00 0.00 0.00 0.00 0.00 0.00 0.06 0.10 0.11 0.12 0.22 0.22 0.18 0.32 0.37 0.32 0.32 0.30 0.23 0.27 0.32 0.21 0.04 0.01 0.01 0.00 0.01 0.02
0.00 0.00 0.00 0.00 0.00 0.00 0.00 0.00 0.00 0.00 0.00 0.00 0.00 0.00 0.00 0.00 0.00 0.00 0.00 0.00 0.00 0.00 0.00 0.00 0.00 0.00 0.00 0.03 0.15 0.20 0.29 0.27 0.26 0.31 0.38 0.47 0.46 0.54 0.54 0.45 0.33 0.34 0.29 0.16 0.04 0.00 0.01 0.01 0.01
0.00 0.00 0.00 0.00 0.00 0.00 0.00 0.00 0.00 0.00 0.00 0.00 0.00 0.00 0.00 0.00 0.00 0.00 0.00 0.00 0.00 0.00 0.00 0.00 0.00 0.00 0.00 0.04 0.14 0.16 0.15 0.15 0.16 0.20 0.32 0.48 0.59 0.64 0.85 0.85 0.72 0.45 0.33 0.24 0.19 0.09 0.05 0.03 0.04
0.00 0.00 0.00 0.00 0.00 0.00 0.00 0.00 0.00 0.00 0.00 0.00 0.00 0.00 0.00 0.00 0.00 0.00 0.00 0.00 0.00 0.00 0.00 0.00 0.00 0.00 0.01 0.00 0.04 0.13 0.18 0.17 0.10 0.09 0.22 0.35 0.30 0.43 0.67 0.86 0.97 1.16 0.85 0.57 0.40 0.35 0.14 0.06 0.08
0.00 0.00 0.00 0.00 0.00 0.00 0.00 0.00 0.00 0.00 0.00 0.00 0.00 0.00 0.00 0.00 0.00 0.00 0.00 0.00 0.00 0.00 0.00 0.00 0.00 0.00 0.02 0.01 0.09 0.19 0.17 0.18 0.19 0.19 0.09 0.07 0.20 0.21 0.36 0.67 0.71 0.66 0.82 0.94 0.99 1.05 0.81 0.24 0.09
0.00 0.00 0.00 0.00 0.00 0.00 0.00 0.01 0.00 0.00 0.00 0.00 0.00 0.00 0.00 0.00 0.00 0.00 0.00 0.00 0.00 0.00 0.00 0.00 0.00 0.00 0.04 0.15 0.32 0.28 0.23 0.25 0.11 0.05 0.09 0.11 0.24 0.28 0.28 0.34 0.38 0.67 0.84 0.56 0.70 0.56 0.71 0.51 0.14
0.00 0.00 0.00 0.00 0.00 0.00 0.00 0.00 0.00 0.00 0.04 0.04 0.03 0.02 0.01 0.01 0.02 0.01 0.01 0.01 0.00 0.00 0.00 0.00 0.00 0.00 0.01 0.09 0.41 0.48 0.42 0.21 0.13 0.16 0.28 0.28 0.25 0.37 0.40 0.43 0.44 0.51 0.57 0.56 0.54 0.35 0.25 0.27 0.30
0.00 0.00 0.00 0.00 0.00 0.00 0.00 0.01 0.01 0.15 0.32 0.22 0.15 0.10 0.07 0.06 0.05 0.04 0.04 0.04 0.03 0.04 0.04 0.01 0.01 0.00 0.00 0.01 0.13 0.42 0.81 1.21 1.41 1.18 0.78 0.54 0.51 0.59 0.66 0.62 0.67 1.08 1.19 0.87 0.59 0.80 0.69 0.50 0.35
0.00 0.00 0.00 0.00 0.00 0.00 0.00 0.01 0.07 0.13 0.21 0.21 0.22 0.18 0.16 0.12 0.10 0.09 0.08 0.07 0.07 0.09 0.13 0.14 0.07 0.04 0.02 0.03 0.07 0.17 0.32 0.62 1.13 1.80 2.51 2.41 1.92 1.72 1.77 1.62 1.38 1.32 1.42 1.72 1.02 0.83 1.12 1.36 0.97
0.00 0.00 0.00 0.00 0.00 0.00 0.01 0.12 0.21 0.27 0.25 0.28 0.59 0.41 0.31 0.23 0.16 0.12 0.13 0.12 0.12 0.14 0.17 0.22 0.22 0.21 0.13 0.09 0.13 0.22 0.22 0.27 0.55 0.72 1.07 1.95 2.58 2.28 2.56 2.86 3.01 2.45 1.93 2.08 1.99 1.35 1.19 1.60 1.81
0.00 0.00 0.00 0.01 0.01 0.02 0.13 0.29 0.25 0.14 0.21 0.29 0.38 0.37 0.57 0.57 0.33 0.19 0.18 0.24 0.32 0.27 0.24 0.36 0.41 0.52 0.44 0.30 0.22 0.25 0.29 0.24 0.28 0.38 0.75 1.03 1.02 1.29 1.63 1.74 2.01 2.64 2.78 2.27 2.07 1.83 1.52 1.51 1.66
0.00 0.00 0.02 0.06 0.06 0.08 0.16 0.21 0.16 0.07 0.11 0.22 0.38 0.65 0.50 0.60 0.55 0.31 0.26 0.33 0.33 0.43 0.30 0.41 0.67 0.97 0.71 0.63 0.53 0.49 0.47 0.34 0.35 0.24 0.36 0.63 1.08 1.14 1.01 1.13 1.20 1.15 1.24 1.39 1.72 1.91 1.73 1.65 1.61
0.03 0.02 0.02 0.05 0.06 0.09 0.09 0.15 0.12 0.13 0.16 0.25 0.41 0.62 0.89 0.65 0.95 0.76 0.48 0.45 0.60 0.78 0.35 0.43 0.78 1.55 1.37 0.96 0.80 0.82 0.59 0.73 0.50 0.41 0.39 0.50 0.61 0.87 0.91 0.85 0.85 0.86 0.75 0.79 0.94 0.98 1.19 1.51 1.68
0.02 0.04 0.06 0.18 0.10 0.12 0.19 0.20 0.12 0.14 0.16 0.15 0.17 0.26 0.36 0.60 0.75 1.10 0.91 0.76 0.77 0.42 0.45 0.43 0.48 0.57 1.58 1.53 1.26 1.08 1.12 1.31 0.82 0.72 0.60 0.64 0.70 0.64 0.57 0.61 0.68 0.72 0.70 0.72 0.75 0.91 0.90 0.87 0.95

GFSSGP_prec_precacc24_147.txt.gz
Total_Precipitation_Accumulation
0.00 0.00 0.00 0.00 0.00 0.00 0.00 0.00 0.00 0.00 0.00 0.00 0.00 0.00 0.00 0.00 0.00 0.00 0.00 0.01 0.00 0.00 0.00 0.00 0.00 0.00 0.00 0.00 0.00 0.00 0.00 0.00 0.00 0.00 0.00 0.00 0.00 0.00 0.00 0.00 0.00 0.00 0.00 0.00 0.00 0.00 0.02 0.01 0.01
0.00 0.00 0.00 0.00 0.00 0.00 0.00 0.00 0.00 0.00 0.00 0.00 0.00 0.00 0.00 0.00 0.00 0.00 0.01 0.02 0.00 0.00 0.00 0.00 0.00 0.00 0.00 0.00 0.00 0.00 0.00 0.00 0.00 0.00 0.00 0.00 0.00 0.00 0.00 0.00 0.00 0.00 0.00 0.00 0.00 0.00 0.00 0.00 0.00
0.00 0.00 0.00 0.00 0.00 0.00 0.00 0.00 0.00 0.00 0.00 0.00 0.00 0.00 0.00 0.00 0.00 0.01 0.02 0.02 0.02 0.01 0.00 0.02 0.01 0.01 0.00 0.00 0.00 0.00 0.00 0.00 0.00 0.00 0.00 0.00 0.00 0.00 0.00 0.00 0.00 0.00 0.00 0.00 0.00 0.00 0.00 0.00 0.00
0.00 0.00 0.00 0.00 0.00 0.00 0.00 0.00 0.00 0.00 0.00 0.00 0.00 0.00 0.00 0.00 0.00 0.00 0.00 0.00 0.00 0.00 0.00 0.01 0.02 0.01 0.01 0.00 0.00 0.00 0.00 0.00 0.00 0.00 0.00 0.00 0.00 0.00 0.00 0.00 0.00 0.00 0.00 0.00 0.00 0.00 0.00 0.00 0.00
0.00 0.00 0.00 0.00 0.00 0.00 0.00 0.00 0.00 0.00 0.00 0.00 0.00 0.00 0.00 0.00 0.00 0.00 0.00 0.00 0.00 0.00 0.00 0.00 0.00 0.01 0.01 0.01 0.01 0.01 0.01 0.00 0.00 0.00 0.00 0.00 0.00 0.00 0.00 0.00 0.00 0.00 0.00 0.00 0.00 0.00 0.00 0.00 0.00
0.00 0.00 0.00 0.00 0.00 0.00 0.00 0.00 0.00 0.00 0.00 0.00 0.00 0.00 0.00 0.00 0.00 0.00 0.00 0.00 0.00 0.00 0.00 0.00 0.01 0.01 0.01 0.01 0.02 0.01 0.02 0.04 0.01 0.00 0.00 0.02 0.02 0.00 0.00 0.00 0.00 0.00 0.00 0.00 0.00 0.00 0.00 0.00 0.00
0.00 0.00 0.00 0.00 0.00 0.00 0.00 0.00 0.00 0.00 0.00 0.00 0.00 0.00 0.00 0.00 0.00 0.00 0.00 0.00 0.00 0.00 0.00 0.00 0.00 0.00 0.00 0.00 0.02 0.07 0.05 0.10 0.06 0.02 0.06 0.06 0.04 0.02 0.00 0.00 0.00 0.00 0.00 0.00 0.00 0.00 0.00 0.00 0.00
0.00 0.00 0.00 0.00 0.00 0.00 0.00 0.00 0.00 0.00 0.00 0.00 0.00 0.00 0.00 0.00 0.00 0.00 0.00 0.00 0.00 0.00 0.00 0.01 0.00 0.00 0.00 0.00 0.00 0.11 0.14 0.11 0.07 0.05 0.08 0.10 0.10 0.05 0.01 0.00 0.00 0.00 0.00 0.00 0.00 0.00 0.00 0.00 0.00
0.00 0.00 0.00 0.00 0.00 0.00 0.00 0.00 0.00 0.00 0.00 0.00 0.00 0.00 0.00 0.00 0.00 0.00 0.00 0.00 0.00 0.01 0.01 0.01 0.02 0.01 0.00 0.01 0.00 0.05 0.14 0.13 0.11 0.09 0.13 0.14 0.12 0.14 0.10 0.01 0.02 0.04 0.01 0.00 0.00 0.00 0.00 0.00 0.00
0.00 0.00 0.00 0.00 0.00 0.00 0.00 0.00 0.00 0.00 0.00 0.00 0.00 0.00 0.00 0.00 0.00 0.00 0.00 0.00 0.00 0.00 0.00 0.00 0.01 0.02 0.00 0.01 0.02 0.01 0.05 0.08 0.08 0.08 0.10 0.12 0.08 0.10 0.07 0.10 0.08 0.07 0.09 0.00 0.00 0.00 0.00 0.00 0.00
0.00 0.00 0.00 0.00 0.00 0.00 0.00 0.00 0.00 0.00 0.00 0.00 0.00 0.00 0.00 0.00 0.00 0.00 0.00 0.00 0.00 0.00 0.00 0.00 0.01 0.04 0.05 0.02 0.02 0.02 0.03 0.03 0.04 0.04 0.04 0.05 0.06 0.06 0.03 0.06 0.06 0.03 0.02 0.00 0.00 0.00 0.00 0.00 0.00
0.00 0.00 0.00 0.00 0.00 0.00 0.00 0.00 0.00 0.00 0.00 0.00 0.00 0.00 0.00 0.00 0.00 0.00 0.00 0.00 0.00 0.00 0.00 0.00 0.02 0.09 0.27 0.27 0.13 0.09 0.10 0.06 0.02 0.01 0.07 0.07 0.08 0.09 0.06 0.07 0.06 0.05 0.03 0.01 0.00 0.00 0.00 0.00 0.00
0.00 0.00 0.00 0.00 0.00 0.00 0.00 0.00 0.00 0.00 0.00 0.00 0.00 0.00 0.00 0.00 0.00 0.00 0.00 0.00 0.00 0.00 0.00 0.00 0.00 0.04 0.14 0.26 0.40 0.35 0.12 0.16 0.15 0.07 0.06 0.08 0.10 0.10 0.12 0.08 0.08 0.05 0.07 0.04 0.03 0.01 0.01 0.00 0.00
0.00 0.00 0.00 0.00 0.00 0.00 0.00 0.00 0.00 0.00 0.00 0.00 0.00 0.00 0.00 0.00 0.00 0.00 0.00 0.00 0.00 0.00 0.00 0.00 0.00 0.00 0.05 0.21 0.10 0.26 0.32 0.28 0.26 0.17 0.09 0.15 0.16 0.15 0.18 0.14 0.12 0.10 0.08 0.08 0.06 0.03 0.02 0.01 0.00
0.00 0.00 0.00 0.00 0.00 0.00 0.00 0.00 0.00 0.00 0.00 0.00 0.00 0.00 0.00 0.00 0.00 0.00 0.00 0.00 0.00 0.00 0.00 0.00 0.00 0.00 0.00 0.07 0.13 0.11 0.30 0.48 0.33 0.22 0.20 0.14 0.20 0.18 0.22 0.22 0.17 0.11 0.09 0.11 0.07 0.06 0.04 0.03 0.02
0.00 0.00 0.00 0.00 0.00 0.00 0.00 0.00 0.00 0.00 0.00 0.00 0.00 0.00 0.00 0.00 0.00 0.00 0.00 0.00 0.00 0.00 0.00 0.00 0.00 0.00 0.00 0.04 0.17 0.12 0.16 0.35 0.32 0.30 0.17 0.15 0.10 0.16 0.21 0.28 0.24 0.25 0.21 0.15 0.08 0.04 0.03 0.02 0.03
0.00 0.00 0.00 0.00 0.00 0.00 0.00 0.00 0.00 0.00 0.00 0.00 0.00 0.00 0.00 0.00 0.00 0.00 0.00 0.00 0.00 0.00 0.00 0.00 0.00 0.00 0.00 0.06 0.10 0.10 0.11 0.22 0.22 0.18 0.32 0.37 0.32 0.32 0.30 0.23 0.27 0.33 0.30 0.23 0.16 0.06 0.01 0.01 0.02
0.00 0.00 0.00 0.00 0.00 0.00 0.00 0.00 0.00 0.00 0.00 0.00 0.00 0.00 0.00 0.00 0.00 0.00 0.00 0.00 0.00 0.00 0.00 0.00 0.00 0.00 0.00 0.03 0.15 0.19 0.29 0.26 0.26 0.31 0.38 0.47 0.46 0.54 0.54 0.45 0.33 0.34 0.31 0.25 0.23 0.19 0.12 0.03 0.01
0.00 0.00 0.00 0.00 0.00 0.00 0.00 0.00 0.00 0.00 0.00 0.00 0.00 0.00 0.00 0.00 0.00 0.00 0.00 0.00 0.00 0.00 0.00 0.00 0.00 0.00 0.00 0.04 0.14 0.15 0.15 0.15 0.15 0.20 0.32 0.48 0.59 0.64 0.85 0.86 0.72 0.45 0.34 0.25 0.26 0.28 0.26 0.19 0.10
0.00 0.00 0.00 0.00 0.00 0.00 0.00 0.00 0.00 0.00 0.00 0.00 0.00 0.00 0.00 0.00 0.00 0.00 0.00 0.00 0.00 0.00 0.00 0.00 0.00 0.00 0.00 0.00 0.04 0.12 0.17 0.17 0.08 0.08 0.22 0.34 0.30 0.43 0.67 0.86 0.97 1.17 0.86 0.57 0.41 0.41 0.41 0.63 0.74
0.00 0.00 0.00 0.00 0.00 0.00 0.00 0.00 0.00 0.00 0.00 0.00 0.00 0.00 0.00 0.00 0.00 0.00 0.00 0.00 0.00 0.00 0.00 0.00 0.00 0.00 0.02 0.01 0.08 0.16 0.16 0.18 0.18 0.19 0.09 0.06 0.19 0.21 0.36 0.67 0.72 0.66 0.82 0.94 0.99 1.06 1.05 0.92 0.90
0.00 0.00 0.00 0.00 0.00 0.00 0.00 0.00 0.00 0.00 0.00 0.00 0.00 0.00 0.00 0.00 0.00 0.00 0.00 0.00 0.00 0.00 0.00 0.00 0.00 0.00 0.04 0.14 0.31 0.28 0.23 0.25 0.11 0.06 0.08 0.07 0.21 0.25 0.27 0.34 0.38 0.67 0.84 0.56 0.70 0.56 0.75 0.97 1.11
0.00 0.00 0.00 0.00 0.00 0.00 0.00 0.00 0.00 0.00 0.00 0.00 0.01 0.01 0.01 0.01 0.02 0.01 0.01 0.01 0.00 0.00 0.00 0.00 0.00 0.00 0.01 0.09 0.40 0.48 0.42 0.21 0.13 0.16 0.28 0.26 0.22 0.28 0.33 0.38 0.41 0.50 0.55 0.56 0.55 0.36 0.25 0.29 0.37
0.00 0.00 0.00 0.00 0.00 0.00 0.00 0.00 0.01 0.02 0.04 0.02 0.02 0.03 0.04 0.05 0.05 0.04 0.04 0.04 0.03 0.04 0.04 0.01 0.01 0.00 0.00 0.01 0.13 0.43 0.81 1.21 1.42 1.19 0.79 0.54 0.47 0.51 0.55 0.47 0.52 0.93 1.09 0.83 0.58 0.81 0.70 0.51 0.36
0.00 0.00 0.00 0.00 0.00 0.00 0.00 0.00 0.02 0.03 0.05 0.09 0.08 0.07 0.09 0.08 0.09 0.08 0.08 0.07 0.07 0.09 0.13 0.14 0.07 0.04 0.02 0.03 0.06 0.17 0.32 0.62 1.14 1.81 2.52 2.40 1.86 1.70 1.75 1.58 1.31 1.28 1.41 1.72 1.02 0.83 1.13 1.38 0.99
0.00 0.00 0.00 0.00 0.00 0.00 0.00 0.04 0.08 0.11 0.08 0.10 0.14 0.16 0.16 0.15 0.13 0.11 0.13 0.11 0.12 0.14 0.17 0.22 0.21 0.20 0.11 0.07 0.10 0.21 0.21 0.26 0.54 0.71 1.06 1.92 2.52 2.26 2.51 2.82 2.98 2.44 1.93 2.09 1.97 1.32 1.20 1.62 1.83
0.00 0.00 0.00 0.02 0.02 0.04 0.02 0.06 0.11 0.04 0.07 0.09 0.15 0.18 0.37 0.46 0.30 0.19 0.17 0.23 0.31 0.26 0.22 0.35 0.39 0.50 0.42 0.29 0.21 0.23 0.27 0.23 0.28 0.37 0.73 1.02 1.00 1.22 1.54 1.72 2.01 2.65 2.78 2.28 2.07 1.82 1.51 1.51 1.68
0.00 0.00 0.02 0.07 0.07 0.05 0.03 0.07 0.06 0.02 0.04 0.07 0.15 0.25 0.27 0.39 0.47 0.30 0.26 0.32 0.32 0.42 0.29 0.40 0.66 0.97 0.70 0.62 0.53 0.49 0.47 0.34 0.35 0.25 0.35 0.63 1.06 1.09 0.95 1.12 1.22 1.17 1.29 1.42 1.79 1.94 1.75 1.66 1.60
0.03 0.02 0.02 0.05 0.04 0.06 0.04 0.09 0.06 0.05 0.07 0.09 0.13 0.24 0.39 0.33 0.58 0.58 0.40 0.44 0.60 0.77 0.35 0.42 0.78 1.55 1.37 0.96 0.80 0.82 0.59 0.73 0.51 0.43 0.41 0.53 0.61 0.81 0.86 0.80 0.83 0.94 0.82 0.91 1.01 0.99 1.21 1.52 1.69
0.01 0.03 0.06 0.19 0.12 0.15 0.18 0.17 0.06 0.06 0.06 0.06 0.06 0.10 0.16 0.29 0.48 0.78 0.63 0.54 0.75 0.41 0.45 0.43 0.48 0.56 1.58 1.53 1.26 1.08 1.12 1.31 0.83 0.77 0.66 0.69 0.77 0.70 0.56 0.57 0.67 0.76 0.82 0.88 0.91 1.00 0.98 0.91 1.00

GFSSGP_prec_precacc24_150.txt.gz
Total_Precipitation_Accumulation
0.00 0.00 0.00 0.00 0.00 0.00 0.00 0.00 0.00 0.00 0.00 0.00 0.00 0.00 0.00 0.00 0.00 0.02 0.08 0.03 0.01 0.00 0.00 0.00 0.00 0.00 0.00 0.00 0.00 0.00 0.00 0.00 0.00 0.00 0.00 0.00 0.00 0.00 0.00 0.00 0.00 0.00 0.00 0.00 0.00 0.00 0.02 0.01 0.01
0.00 0.00 0.00 0.00 0.00 0.00 0.00 0.00 0.00 0.00 0.00 0.00 0.00 0.00 0.00 0.00 0.00 0.01 0.03 0.04 0.01 0.00 0.00 0.00 0.00 0.00 0.00 0.00 0.00 0.00 0.00 0.00 0.00 0.00 0.00 0.00 0.00 0.00 0.00 0.00 0.00 0.00 0.00 0.00 0.00 0.00 0.00 0.00 0.00
0.00 0.00 0.00 0.00 0.00 0.00 0.00 0.00 0.00 0.00 0.00 0.00 0.00 0.00 0.00 0.00 0.00 0.01 0.04 0.05 0.05 0.03 0.01 0.02 0.02 0.01 0.01 0.01 0.00 0.00 0.00 0.00 0.00 0.00 0.00 0.00 0.00 0.00 0.00 0.00 0.00 0.00 0.00 0.00 0.00 0.00 0.00 0.00 0.00
0.00 0.00 0.00 0.00 0.00 0.00 0.00 0.00 0.00 0.00 0.00 0.00 0.00 0.00 0.00 0.00 0.00 0.01 0.00 0.01 0.02 0.01 0.01 0.01 0.03 0.03 0.02 0.01 0.01 0.01 0.00 0.00 0.00 0.00 0.01 0.00 0.00 0.00 0.00 0.00 0.00 0.00 0.00 0.00 0.00 0.00 0.00 0.00 0.00
0.00 0.00 0.00 0.00 0.00 0.00 0.00 0.00 0.00 0.00 0.00 0.00 0.00 0.00 0.00 0.00 0.00 0.00 0.00 0.00 0.00 0.00 0.00 0.00 0.00 0.01 0.01 0.01 0.01 0.01 0.01 0.00 0.00 0.00 0.04 0.05 0.04 0.02 0.00 0.00 0.00 0.00 0.00 0.00 0.00 0.00 0.00 0.00 0.00
0.00 0.00 0.00 0.00 0.00 0.00 0.00 0.00 0.00 0.00 0.00 0.00 0.00 0.00 0.00 0.00 0.00 0.00 0.00 0.00 0.00 0.00 0.00 0.00 0.01 0.01 0.01 0.01 0.02 0.01 0.03 0.06 0.02 0.00 0.03 0.09 0.09 0.07 0.02 0.00 0.00 0.00 0.00 0.00 0.00 0.00 0.00 0.00 0.00
0.00 0.00 0.00 0.00 0.00 0.00 0.00 0.00 0.00 0.00 0.00 0.00 0.00 0.00 0.00 0.00 0.00 0.00 0.00 0.00 0.00 0.00 0.00 0.00 0.00 0.00 0.00 0.00 0.03 0.07 0.06 0.14 0.11 0.09 0.09 0.09 0.10 0.09 0.09 0.04 0.01 0.00 0.00 0.00 0.00 0.00 0.00 0.00 0.00
0.00 0.00 0.00 0.00 0.00 0.00 0.00 0.00 0.00 0.00 0.00 0.00 0.00 0.00 0.00 0.00 0.00 0.00 0.00 0.00 0.00 0.00 0.00 0.01 0.00 0.00 0.00 0.00 0.00 0.11 0.14 0.11 0.10 0.14 0.23 0.18 0.12 0.10 0.08 0.08 0.06 0.02 0.00 0.00 0.00 0.00 0.00 0.00 0.00
0.00 0.00 0.00 0.00 0.00 0.00 0.00 0.00 0.00 0.00 0.00 0.00 0.00 0.00 0.00 0.00 0.00 0.00 0.00 0.00 0.00 0.01 0.01 0.01 0.02 0.01 0.00 0.01 0.00 0.05 0.14 0.13 0.11 0.10 0.16 0.20 0.14 0.19 0.22 0.11 0.12 0.14 0.08 0.03 0.01 0.00 0.00 0.00 0.00
0.00 0.00 0.00 0.00 0.00 0.00 0.00 0.00 0.00 0.00 0.00 0.00 0.00 0.00 0.00 0.00 0.00 0.00 0.00 0.00 0.00 0.00 0.00 0.00 0.01 0.02 0.00 0.01 0.02 0.01 0.05 0.08 0.08 0.08 0.10 0.12 0.08 0.10 0.10 0.17 0.16 0.13 0.17 0.09 0.03 0.02 0.00 0.00 0.00
0.00 0.00 0.00 0.00 0.00 0.00 0.00 0.00 0.00 0.00 0.00 0.00 0.00 0.00 0.00 0.00 0.00 0.00 0.00 0.00 0.00 0.00 0.00 0.00 0.01 0.04 0.05 0.02 0.02 0.02 0.03 0.03 0.04 0.04 0.04 0.04 0.06 0.06 0.04 0.08 0.08 0.11 0.13 0.08 0.04 0.01 0.00 0.00 0.00
0.00 0.00 0.00 0.00 0.00 0.00 0.00 0.00 0.00 0.00 0.00 0.00 0.00 0.00 0.00 0.00 0.00 0.00 0.00 0.00 0.00 0.00 0.00 0.00 0.02 0.09 0.27 0.27 0.13 0.09 0.10 0.06 0.02 0.01 0.07 0.07 0.07 0.09 0.06 0.07 0.07 0.06 0.08 0.09 0.11 0.06 0.02 0.00 0.00
0.00 0.00 0.00 0.00 0.00 0.00 0.00 0.00 0.00 0.00 0.00 0.00 0.00 0.00 0.00 0.00 0.00 0.00 0.00 0.00 0.00 0.00 0.00 0.00 0.00 0.04 0.14 0.26 0.40 0.35 0.12 0.16 0.15 0.07 0.06 0.08 0.10 0.10 0.12 0.07 0.08 0.06 0.09 0.06 0.06 0.03 0.03 0.03 0.02
0.00 0.00 0.00 0.00 0.00 0.00 0.00 0.00 0.00 0.00 0.00 0.00 0.00 0.00 0.00 0.00 0.00 0.00 0.00 0.00 0.00 0.00 0.00 0.00 0.00 0.00 0.05 0.21 0.10 0.26 0.32 0.28 0.26 0.17 0.09 0.15 0.16 0.15 0.18 0.14 0.12 0.09 0.11 0.14 0.10 0.05 0.04 0.02 0.04
0.00 0.00 0.00 0.00 0.00 0.00 0.00 0.00 0.00 0.00 0.00 0.00 0.00 0.00 0.00 0.00 0.00 0.00 0.00 0.00 0.00 0.00 0.00 0.00 0.00 0.00 0.00 0.07 0.13 0.11 0.30 0.48 0.33 0.22 0.20 0.14 0.20 0.18 0.22 0.22 0.16 0.11 0.09 0.13 0.14 0.12 0.07 0.03 0.03
0.00 0.00 0.00 0.00 0.00 0.00 0.00 0.00 0.00 0.00 0.00 0.00 0.00 0.00 0.00 0.00 0.00 0.00 0.00 0.00 0.00 0.00 0.00 0.00 0.00 0.00 0.00 0.04 0.17 0.12 0.16 0.35 0.32 0.30 0.17 0.15 0.10 0.16 0.21 0.28 0.24 0.25 0.21 0.16 0.10 0.08 0.08 0.03 0.02
0.00 0.00 0.00 0.00 0.00 0.00 0.00 0.00 0.00 0.00 0.00 0.00 0.00 0.00 0.00 0.00 0.00 0.00 0.00 0.00 0.00 0.00 0.00 0.00 0.00 0.00 0.00 0.06 0.10 0.10 0.11 0.22 0.22 0.18 0.32 0.37 0.32 0.32 0.30 0.23 0.27 0.33 0.30 0.23 0.16 0.09 0.06 0.05 0.03
0.00 0.00 0.00 0.00 0.00 0.00 0.00 0.00 0.00 0.00 0.00 0.00 0.00 0.00 0.00 0.00 0.00 0.00 0.00 0.00 0.00 0.00 0.00 0.00 0.00 0.00 0.00 0.03 0.15 0.19 0.29 0.26 0.26 0.31 0.38 0.47 0.46 0.54 0.53 0.45 0.33 0.34 0.31 0.25 0.23 0.19 0.16 0.13 0.07
0.00 0.00 0.00 0.00 0.00 0.00 0.00 0.00 0.00 0.00 0.00 0.00 0.00 0.00 0.00 0.00 0.00 0.00 0.00 0.00 0.00 0.00 0.00 0.00 0.00 0.00 0.00 0.04 0.14 0.15 0.15 0.15 0.15 0.20 0.32 0.48 0.59 0.64 0.85 0.86 0.72 0.45 0.34 0.25 0.26 0.28 0.26 0.30 0.37
0.00 0.00 0.00 0.00 0.00 0.00 0.00 0.00 0.00 0.00 0.00 0.00 0.00 0.00 0.00 0.00 0.00 0.00 0.00 0.00 0.00 0.00 0.00 0.00 0.00 0.00 0.00 0.00 0.04 0.12 0.17 0.17 0.08 0.08 0.22 0.34 0.30 0.43 0.67 0.86 0.97 1.17 0.86 0.57 0.41 0.41 0.41 0.63 0.88
0.00 0.00 0.00 0.00 0.00 0.00 0.00 0.00 0.00 0.00 0.00 0.00 0.00 0.00 0.00 0.00 0.00 0.00 0.00 0.00 0.00 0.00 0.00 0.00 0.00 0.00 0.01 0.01 0.07 0.14 0.16 0.18 0.18 0.19 0.09 0.05 0.19 0.21 0.36 0.68 0.72 0.67 0.82 0.95 0.99 1.06 1.05 0.92 0.91
0.00 0.00 0.00 0.00 0.00 0.00 0.00 0.00 0.00 0.00 0.00 0.00 0.00 0.00 0.00 0.00 0.00 0.00 0.00 0.00 0.00 0.00 0.00 0.00 0.00 0.00 0.03 0.10 0.24 0.25 0.23 0.25 0.12 0.06 0.08 0.07 0.20 0.25 0.27 0.35 0.39 0.68 0.85 0.57 0.70 0.56 0.76 0.97 1.11
0.00 0.00 0.00 0.00 0.00 0.00 0.00 0.00 0.00 0.00 0.00 0.00 0.00 0.00 0.00 0.00 0.01 0.01 0.01 0.01 0.00 0.00 0.00 0.00 0.00 0.00 0.00 0.04 0.18 0.34 0.40 0.21 0.13 0.16 0.28 0.25 0.21 0.27 0.33 0.38 0.41 0.49 0.55 0.54 0.55 0.36 0.26 0.28 0.37
0.00 0.00 0.00 0.00 0.00 0.00 0.00 0.00 0.00 0.01 0.01 0.00 0.00 0.00 0.00 0.01 0.01 0.01 0.02 0.02 0.01 0.02 0.03 0.01 0.01 0.00 0.00 0.01 0.09 0.22 0.68 1.21 1.41 1.19 0.79 0.54 0.46 0.49 0.54 0.45 0.50 0.88 0.99 0.77 0.56 0.80 0.71 0.52 0.37
0.00 0.00 0.00 0.00 0.00 0.00 0.00 0.00 0.00 0.00 0.00 0.01 0.01 0.01 0.01 0.01 0.01 0.02 0.03 0.04 0.04 0.05 0.08 0.11 0.06 0.04 0.02 0.03 0.06 0.17 0.31 0.62 1.14 1.80 2.51 2.38 1.85 1.70 1.74 1.54 1.24 1.24 1.38 1.71 1.02 0.84 1.13 1.39 1.00
0.00 0.00 0.00 0.00 0.00 0.00 0.00 0.01 0.01 0.01 0.00 0.00 0.01 0.01 0.01 0.02 0.03 0.03 0.05 0.07 0.09 0.11 0.13 0.20 0.19 0.18 0.10 0.07 0.10 0.21 0.20 0.25 0.53 0.70 1.04 1.90 2.50 2.24 2.48 2.79 2.87 2.30 1.85 2.09 1.98 1.33 1.20 1.62 1.85
0.00 0.00 0.00 0.02 0.02 0.05 0.01 0.01 0.01 0.00 0.00 0.00 0.01 0.02 0.04 0.09 0.10 0.07 0.08 0.15 0.25 0.22 0.19 0.32 0.36 0.47 0.40 0.27 0.19 0.22 0.26 0.21 0.26 0.36 0.72 1.00 0.99 1.20 1.51 1.68 1.94 2.50 2.68 2.25 2.06 1.82 1.50 1.52 1.69
0.00 0.00 0.02 0.09 0.10 0.08 0.03 0.04 0.02 0.00 0.00 0.00 0.02 0.04 0.07 0.12 0.19 0.16 0.17 0.26 0.30 0.38 0.26 0.37 0.62 0.92 0.67 0.60 0.52 0.49 0.47 0.34 0.35 0.24 0.35 0.62 1.06 1.07 0.93 1.10 1.15 1.11 1.22 1.39 1.78 1.98 1.78 1.70 1.58
0.02 0.02 0.02 0.08 0.07 0.10 0.05 0.06 0.02 0.01 0.01 0.01 0.02 0.04 0.09 0.14 0.21 0.30 0.25 0.31 0.54 0.76 0.32 0.40 0.76 1.52 1.35 0.95 0.79 0.81 0.59 0.73 0.51 0.44 0.41 0.54 0.63 0.81 0.84 0.77 0.79 0.94 0.82 0.94 1.09 1.17 1.31 1.60 1.69
0.00 0.02 0.06 0.22 0.16 0.19 0.22 0.15 0.01 0.01 0.01 0.01 0.01 0.02 0.04 0.09 0.18 0.33 0.32 0.35 0.67 0.40 0.44 0.42 0.47 0.54 1.56 1.53 1.25 1.07 1.12 1.31 0.83 0.78 0.66 0.70 0.80 0.74 0.60 0.55 0.62 0.71 0.81 0.97 1.05 1.12 1.10 0.98 1.00

GFSSGP_prec_precacc24_153.txt.gz
Total_Precipitation_Accumulation
0.00 0.00 0.00 0.00 0.00 0.00 0.00 0.00 0.00 0.00 0.00 0.00 0.00 0.00 0.00 0.00 0.00 0.06 0.12 0.05 0.02 0.01 0.00 0.00 0.01 0.00 0.00 0.00 0.00 0.00 0.00 0.00 0.00 0.00 0.00 0.00 0.00 0.00 0.00 0.00 0.00 0.00 0.00 0.00 0.00 0.00 0.02 0.01 0.01
0.00 0.00 0.00 0.00 0.00 0.00 0.00 0.00 0.00 0.00 0.00 0.00 0.00 0.00 0.00 0.00 0.00 0.01 0.04 0.04 0.01 0.01 0.00 0.00 0.01 0.01 0.00 0.00 0.00 0.00 0.00 0.00 0.00 0.00 0.00 0.00 0.00 0.00 0.00 0.00 0.00 0.00 0.00 0.00 0.00 0.00 0.00 0.00 0.00
0.00 0.00 0.00 0.00 0.00 0.00 0.00 0.00 0.00 0.00 0.00 0.00 0.00 0.00 0.00 0.00 0.00 0.01 0.04 0.05 0.05 0.03 0.01 0.02 0.02 0.01 0.01 0.01 0.00 0.00 0.00 0.00 0.00 0.00 0.00 0.02 0.02 0.02 0.01 0.00 0.00 0.00 0.00 0.00 0.00 0.00 0.00 0.00 0.00
0.00 0.00 0.00 0.00 0.00 0.00 0.00 0.00 0.00 0.00 0.00 0.00 0.00 0.00 0.00 0.00 0.00 0.01 0.00 0.01 0.02 0.01 0.01 0.01 0.03 0.03 0.02 0.01 0.01 0.01 0.00 0.00 0.00 0.00 0.01 0.06 0.11 0.11 0.05 0.00 0.00 0.00 0.00 0.00 0.00 0.00 0.00 0.00 0.00
0.00 0.00 0.00 0.00 0.00 0.00 0.00 0.00 0.00 0.00 0.00 0.00 0.00 0.00 0.00 0.00 0.00 0.00 0.00 0.00 0.00 0.00 0.00 0.00 0.00 0.01 0.01 0.01 0.01 0.01 0.01 0.00 0.00 0.00 0.04 0.06 0.07 0.07 0.04 0.02 0.00 0.00 0.00 0.00 0.00 0.00 0.00 0.00 0.00
0.00 0.00 0.00 0.00 0.00 0.00 0.00 0.00 0.00 0.00 0.00 0.00 0.00 0.00 0.00 0.00 0.00 0.00 0.00 0.00 0.00 0.00 0.00 0.00 0.01 0.01 0.01 0.01 0.02 0.01 0.03 0.06 0.02 0.04 0.04 0.09 0.09 0.08 0.06 0.04 0.01 0.00 0.00 0.00 0.00 0.00 0.00 0.00 0.00
0.00 0.00 0.00 0.00 0.00 0.00 0.00 0.00 0.00 0.00 0.00 0.00 0.00 0.00 0.00 0.00 0.00 0.00 0.00 0.00 0.00 0.00 0.00 0.00 0.00 0.00 0.00 0.00 0.03 0.07 0.06 0.14 0.11 0.12 0.16 0.11 0.10 0.09 0.09 0.08 0.07 0.03 0.00 0.00 0.00 0.00 0.00 0.00 0.00
0.00 0.00 0.00 0.00 0.00 0.00 0.00 0.00 0.00 0.00 0.00 0.00 0.00 0.00 0.00 0.00 0.00 0.00 0.00 0.00 0.00 0.00 0.00 0.01 0.00 0.00 0.00 0.00 0.00 0.11 0.14 0.11 0.10 0.14 0.24 0.22 0.16 0.13 0.10 0.09 0.08 0.06 0.02 0.02 0.01 0.00 0.00 0.00 0.00
0.00 0.00 0.00 0.00 0.00 0.00 0.00 0.00 0.00 0.00 0.00 0.00 0.00 0.00 0.00 0.00 0.00 0.00 0.00 0.00 0.00 0.01 0.01 0.01 0.02 0.01 0.00 0.01 0.00 0.05 0.14 0.13 0.11 0.10 0.16 0.20 0.16 0.25 0.32 0.21 0.13 0.16 0.12 0.08 0.06 0.04 0.01 0.00 0.00
0.00 0.00 0.00 0.00 0.00 0.00 0.00 0.00 0.00 0.00 0.00 0.00 0.00 0.00 0.00 0.00 0.00 0.00 0.00 0.00 0.00 0.00 0.00 0.00 0.01 0.02 0.00 0.01 0.02 0.01 0.05 0.08 0.08 0.08 0.10 0.12 0.08 0.10 0.11 0.20 0.27 0.20 0.16 0.09 0.06 0.04 0.02 0.00 0.00
0.00 0.00 0.00 0.00 0.00 0.00 0.00 0.00 0.00 0.00 0.00 0.00 0.00 0.00 0.00 0.00 0.00 0.00 0.00 0.00 0.00 0.00 0.00 0.00 0.00 0.04 0.05 0.02 0.02 0.02 0.03 0.03 0.04 0.04 0.04 0.04 0.06 0.05 0.03 0.08 0.13 0.18 0.23 0.11 0.06 0.02 0.01 0.00 0.00
0.00 0.00 0.00 0.00 0.00 0.00 0.00 0.00 0.00 0.00 0.00 0.00 0.00 0.00 0.00 0.00 0.00 0.00 0.00 0.00 0.00 0.00 0.00 0.00 0.02 0.09 0.27 0.27 0.13 0.09 0.10 0.06 0.02 0.01 0.06 0.07 0.07 0.07 0.05 0.05 0.06 0.09 0.16 0.18 0.24 0.16 0.09 0.06 0.03
0.00 0.00 0.00 0.00 0.00 0.00 0.00 0.00 0.00 0.00 0.00 0.00 0.00 0.00 0.00 0.00 0.00 0.00 0.00 0.00 0.00 0.00 0.00 0.00 0.00 0.04 0.14 0.26 0.40 0.35 0.12 0.16 0.15 0.07 0.06 0.08 0.10 0.10 0.11 0.06 0.07 0.05 0.10 0.12 0.15 0.13 0.13 0.12 0.10
0.00 0.00 0.00 0.00 0.00 0.00 0.00 0.00 0.00 0.00 0.00 0.00 0.00 0.00 0.00 0.00 0.00 0.00 0.00 0.00 0.00 0.00 0.00 0.00 0.00 0.00 0.05 0.21 0.10 0.26 0.32 0.28 0.26 0.17 0.09 0.15 0.16 0.15 0.18 0.14 0.11 0.09 0.10 0.14 0.15 0.12 0.12 0.10 0.12
0.00 0.00 0.00 0.00 0.00 0.00 0.00 0.00 0.00 0.00 0.00 0.00 0.00 0.00 0.00 0.00 0.00 0.00 0.00 0.00 0.00 0.00 0.00 0.00 0.00 0.00 0.00 0.07 0.13 0.11 0.30 0.48 0.33 0.22 0.20 0.14 0.20 0.18 0.22 0.22 0.16 0.10 0.09 0.11 0.13 0.13 0.13 0.11 0.10
0.00 0.00 0.00 0.00 0.00 0.00 0.00 0.00 0.00 0.00 0.00 0.00 0.00 0.00 0.00 0.00 0.00 0.00 0.00 0.00 0.00 0.00 0.00 0.00 0.00 0.00 0.00 0.04 0.17 0.12 0.16 0.35 0.32 0.30 0.17 0.15 0.10 0.16 0.21 0.28 0.24 0.25 0.20 0.15 0.09 0.07 0.10 0.10 0.09
0.00 0.00 0.00 0.00 0.00 0.00 0.00 0.00 0.00 0.00 0.00 0.00 0.00 0.00 0.00 0.00 0.00 0.00 0.00 0.00 0.00 0.00 0.00 0.00 0.00 0.00 0.00 0.05 0.10 0.10 0.11 0.22 0.22 0.18 0.32 0.37 0.32 0.32 0.29 0.23 0.27 0.33 0.29 0.22 0.15 0.08 0.06 0.07 0.08
0.00 0.00 0.00 0.00 0.00 0.00 0.00 0.00 0.00 0.00 0.00 0.00 0.00 0.00 0.00 0.00 0.00 0.00 0.00 0.00 0.00 0.00 0.00 0.00 0.00 0.00 0.00 0.03 0.13 0.19 0.29 0.26 0.26 0.31 0.38 0.47 0.46 0.54 0.53 0.45 0.33 0.34 0.30 0.24 0.23 0.19 0.15 0.13 0.09
0.00 0.00 0.00 0.00 0.00 0.00 0.00 0.00 0.00 0.00 0.00 0.00 0.00 0.00 0.00 0.00 0.00 0.00 0.00 0.00 0.00 0.00 0.00 0.00 0.00 0.00 0.00 0.03 0.11 0.14 0.15 0.15 0.15 0.20 0.32 0.48 0.59 0.64 0.85 0.86 0.72 0.45 0.34 0.25 0.26 0.28 0.26 0.30 0.37
0.00 0.00 0.00 0.00 0.00 0.00 0.00 0.00 0.00 0.00 0.00 0.00 0.00 0.00 0.00 0.00 0.00 0.00 0.00 0.00 0.00 0.00 0.00 0.00 0.00 0.00 0.00 0.00 0.04 0.11 0.17 0.17 0.08 0.08 0.22 0.34 0.30 0.43 0.67 0.86 0.98 1.17 0.86 0.58 0.41 0.41 0.41 0.63 0.87
0.00 0.00 0.00 0.00 0.00 0.00 0.00 0.00 0.00 0.00 0.00 0.00 0.00 0.00 0.00 0.00 0.00 0.00 0.00 0.00 0.00 0.00 0.00 0.00 0.00 0.00 0.00 0.00 0.06 0.13 0.16 0.18 0.18 0.19 0.09 0.05 0.19 0.21 0.36 0.68 0.73 0.67 0.83 0.96 0.99 1.06 1.05 0.92 0.90
0.00 0.00 0.00 0.00 0.00 0.00 0.00 0.00 0.00 0.00 0.00 0.00 0.00 0.00 0.00 0.00 0.00 0.00 0.00 0.00 0.00 0.00 0.00 0.00 0.00 0.00 0.00 0.00 0.03 0.13 0.20 0.25 0.12 0.06 0.08 0.07 0.20 0.25 0.28 0.35 0.39 0.69 0.85 0.57 0.71 0.57 0.76 0.97 1.11
0.00 0.00 0.00 0.00 0.00 0.00 0.00 0.00 0.00 0.00 0.00 0.00 0.00 0.00 0.00 0.00 0.00 0.00 0.00 0.00 0.00 0.00 0.00 0.00 0.00 0.00 0.00 0.00 0.00 0.07 0.16 0.12 0.09 0.15 0.26 0.25 0.21 0.27 0.33 0.38 0.41 0.50 0.55 0.54 0.55 0.37 0.26 0.29 0.38
0.00 0.00 0.00 0.00 0.00 0.00 0.00 0.00 0.00 0.00 0.00 0.00 0.00 0.00 0.00 0.00 0.00 0.00 0.00 0.00 0.00 0.00 0.00 0.00 0.00 0.00 0.00 0.00 0.01 0.06 0.14 0.29 0.60 0.58 0.61 0.51 0.43 0.47 0.52 0.45 0.49 0.88 0.99 0.77 0.56 0.81 0.71 0.52 0.38
0.00 0.00 0.00 0.00 0.00 0.00 0.00 0.00 0.00 0.00 0.00 0.00 0.00 0.00 0.00 0.00 0.00 0.00 0.00 0.00 0.01 0.01 0.01 0.02 0.02 0.02 0.01 0.02 0.02 0.07 0.14 0.28 0.43 0.67 1.47 2.19 1.83 1.70 1.74 1.53 1.23 1.23 1.37 1.70 1.02 0.83 1.13 1.39 1.00
0.00 0.00 0.00 0.00 0.00 0.00 0.00 0.00 0.00 0.00 0.00 0.00 0.00 0.00 0.00 0.00 0.01 0.01 0.01 0.02 0.04 0.06 0.04 0.05 0.07 0.10 0.08 0.06 0.07 0.12 0.14 0.18 0.42 0.53 0.73 1.78 2.49 2.24 2.47 2.77 2.86 2.28 1.83 2.07 1.97 1.32 1.20 1.63 1.86
0.00 0.00 0.00 0.02 0.02 0.05 0.00 0.00 0.01 0.00 0.00 0.00 0.00 0.00 0.00 0.00 0.01 0.01 0.02 0.05 0.14 0.13 0.10 0.16 0.22 0.36 0.31 0.22 0.17 0.20 0.20 0.18 0.23 0.33 0.67 0.97 0.98 1.20 1.51 1.67 1.93 2.46 2.61 2.18 2.03 1.80 1.49 1.51 1.72
0.00 0.00 0.01 0.09 0.12 0.08 0.01 0.04 0.03 0.02 0.01 0.00 0.00 0.00 0.00 0.01 0.01 0.01 0.03 0.09 0.13 0.25 0.16 0.25 0.48 0.82 0.59 0.52 0.44 0.41 0.42 0.31 0.32 0.22 0.32 0.60 1.05 1.07 0.94 1.11 1.14 1.08 1.17 1.35 1.75 1.95 1.75 1.68 1.60
0.01 0.01 0.02 0.09 0.10 0.13 0.06 0.04 0.04 0.01 0.01 0.00 0.00 0.00 0.01 0.01 0.02 0.04 0.04 0.11 0.31 0.58 0.25 0.31 0.68 1.45 1.29 0.90 0.76 0.79 0.56 0.70 0.49 0.43 0.41 0.54 0.63 0.81 0.85 0.78 0.80 0.93 0.80 0.91 1.07 1.14 1.29 1.57 1.73
0.00 0.00 0.06 0.25 0.17 0.20 0.26 0.15 0.01 0.00 0.00 0.00 0.00 0.00 0.00 0.01 0.03 0.07 0.09 0.10 0.24 0.28 0.39 0.37 0.43 0.51 1.53 1.45 1.22 1.04 1.11 1.31 0.83 0.78 0.66 0.70 0.81 0.74 0.60 0.55 0.61 0.72 0.82 0.97 1.04 1.12 1.23 1.09 1.07

GFSSGP_prec_precacc24_156.txt.gz
Total_Precipitation_Accumulation
0.00 0.00 0.00 0.00 0.00 0.00 0.00 0.00 0.00 0.00 0.00 0.00 0.00 0.00 0.00 0.01 0.00 0.08 0.14 0.05 0.02 0.01 0.00 0.00 0.01 0.01 0.00 0.00 0.00 0.00 0.00 0.00 0.00 0.00 0.00 0.00 0.00 0.00 0.00 0.00 0.00 0.00 0.00 0.01 0.00 0.00 0.02 0.01 0.01
0.00 0.00 0.00 0.00 0.00 0.00 0.00 0.00 0.00 0.00 0.00 0.00 0.00 0.00 0.00 0.00 0.00 0.01 0.04 0.04 0.01 0.01 0.00 0.00 0.01 0.01 0.01 0.00 0.00 0.00 0.00 0.00 0.00 0.00 0.00 0.00 0.00 0.00 0.00 0.00 0.00 0.00 0.00 0.00 0.00 0.00 0.00 0.00 0.00
0.00 0.00 0.00 0.00 0.00 0.00 0.00 0.00 0.00 0.00 0.00 0.00 0.00 0.00 0.00 0.00 0.00 0.01 0.04 0.05 0.05 0.03 0.01 0.02 0.02 0.01 0.01 0.01 0.00 0.00 0.00 0.00 0.00 0.00 0.00 0.03 0.06 0.04 0.03 0.00 0.00 0.00 0.01 0.01 0.00 0.00 0.00 0.00 0.00
0.00 0.00 0.00 0.00 0.00 0.00 0.00 0.00 0.00 0.00 0.00 0.00 0.00 0.00 0.00 0.00 0.00 0.01 0.00 0.01 0.02 0.01 0.01 0.01 0.03 0.03 0.02 0.01 0.01 0.01 0.00 0.00 0.00 0.00 0.01 0.06 0.12 0.12 0.07 0.01 0.00 0.00 0.01 0.03 0.02 0.00 0.00 0.00 0.00
0.00 0.00 0.00 0.00 0.00 0.00 0.00 0.00 0.00 0.00 0.00 0.00 0.00 0.00 0.00 0.00 0.00 0.00 0.00 0.00 0.00 0.00 0.00 0.00 0.00 0.01 0.01 0.01 0.01 0.01 0.01 0.00 0.00 0.00 0.04 0.07 0.07 0.07 0.05 0.02 0.00 0.00 0.00 0.00 0.01 0.00 0.00 0.00 0.00
0.00 0.00 0.00 0.00 0.00 0.00 0.00 0.00 0.00 0.00 0.00 0.00 0.00 0.00 0.00 0.00 0.00 0.00 0.00 0.00 0.00 0.00 0.00 0.00 0.01 0.01 0.01 0.01 0.02 0.01 0.03 0.06 0.02 0.04 0.04 0.09 0.09 0.08 0.06 0.04 0.02 0.00 0.00 0.00 0.00 0.00 0.00 0.00 0.00
0.00 0.00 0.00 0.00 0.00 0.00 0.00 0.00 0.00 0.00 0.00 0.00 0.00 0.00 0.00 0.00 0.00 0.00 0.00 0.00 0.00 0.00 0.00 0.00 0.00 0.00 0.00 0.00 0.03 0.07 0.06 0.14 0.11 0.12 0.16 0.11 0.10 0.09 0.09 0.08 0.07 0.03 0.01 0.00 0.00 0.00 0.00 0.00 0.00
0.00 0.00 0.00 0.00 0.00 0.00 0.00 0.00 0.00 0.00 0.00 0.00 0.00 0.00 0.00 0.00 0.00 0.00 0.00 0.00 0.00 0.00 0.00 0.00 0.00 0.00 0.00 0.00 0.00 0.11 0.14 0.11 0.10 0.14 0.24 0.22 0.16 0.16 0.13 0.15 0.10 0.06 0.02 0.02 0.01 0.01 0.00 0.00 0.00
0.00 0.00 0.00 0.00 0.00 0.00 0.00 0.00 0.00 0.00 0.00 0.00 0.00 0.00 0.00 0.00 0.00 0.00 0.00 0.00 0.00 0.01 0.00 0.00 0.01 0.01 0.00 0.01 0.00 0.05 0.14 0.13 0.11 0.10 0.16 0.20 0.16 0.25 0.33 0.27 0.28 0.22 0.14 0.08 0.06 0.05 0.02 0.00 0.00
0.00 0.00 0.00 0.00 0.00 0.00 0.00 0.00 0.00 0.00 0.00 0.00 0.00 0.00 0.00 0.00 0.00 0.00 0.00 0.00 0.00 0.00 0.00 0.00 0.01 0.01 0.00 0.01 0.02 0.01 0.05 0.08 0.08 0.08 0.10 0.12 0.08 0.10 0.11 0.21 0.31 0.22 0.14 0.09 0.06 0.04 0.02 0.00 0.00
0.00 0.00 0.00 0.00 0.00 0.00 0.00 0.00 0.00 0.00 0.00 0.00 0.00 0.00 0.00 0.00 0.00 0.00 0.00 0.00 0.00 0.00 0.00 0.00 0.00 0.04 0.04 0.02 0.02 0.02 0.03 0.03 0.04 0.04 0.04 0.04 0.06 0.04 0.03 0.07 0.13 0.19 0.25 0.13 0.14 0.08 0.03 0.00 0.00
0.00 0.00 0.00 0.00 0.00 0.00 0.00 0.00 0.00 0.00 0.00 0.00 0.00 0.00 0.00 0.00 0.00 0.00 0.00 0.00 0.00 0.00 0.00 0.00 0.02 0.09 0.24 0.25 0.13 0.09 0.10 0.06 0.02 0.01 0.06 0.07 0.07 0.07 0.05 0.05 0.06 0.08 0.16 0.19 0.29 0.24 0.21 0.18 0.08
0.00 0.00 0.00 0.00 0.00 0.00 0.00 0.00 0.00 0.00 0.00 0.00 0.00 0.00 0.00 0.00 0.00 0.00 0.00 0.00 0.00 0.00 0.00 0.00 0.00 0.03 0.11 0.24 0.39 0.35 0.12 0.16 0.15 0.07 0.06 0.07 0.10 0.10 0.11 0.06 0.07 0.05 0.09 0.12 0.15 0.15 0.20 0.25 0.32
0.00 0.00 0.00 0.00 0.00 0.00 0.00 0.00 0.00 0.00 0.00 0.00 0.00 0.00 0.00 0.00 0.00 0.00 0.00 0.00 0.00 0.00 0.00 0.00 0.00 0.00 0.01 0.06 0.08 0.25 0.32 0.28 0.26 0.17 0.09 0.15 0.16 0.15 0.18 0.13 0.11 0.08 0.09 0.13 0.14 0.11 0.11 0.13 0.21
0.00 0.00 0.00 0.00 0.00 0.00 0.00 0.00 0.00 0.00 0.00 0.00 0.00 0.00 0.00 0.00 0.00 0.00 0.00 0.00 0.00 0.00 0.00 0.00 0.00 0.00 0.00 0.01 0.04 0.09 0.28 0.48 0.33 0.22 0.20 0.14 0.20 0.18 0.21 0.22 0.16 0.10 0.08 0.11 0.12 0.12 0.12 0.10 0.11
0.00 0.00 0.00 0.00 0.00 0.00 0.00 0.00 0.00 0.00 0.00 0.00 0.00 0.00 0.00 0.00 0.00 0.00 0.00 0.00 0.00 0.00 0.00 0.00 0.00 0.00 0.00 0.02 0.09 0.09 0.16 0.35 0.32 0.30 0.17 0.15 0.10 0.16 0.20 0.27 0.24 0.25 0.19 0.15 0.09 0.07 0.10 0.10 0.09
0.00 0.00 0.00 0.00 0.00 0.00 0.00 0.00 0.00 0.00 0.00 0.00 0.00 0.00 0.00 0.00 0.00 0.00 0.00 0.00 0.00 0.00 0.00 0.00 0.00 0.00 0.00 0.00 0.03 0.08 0.08 0.22 0.22 0.18 0.32 0.37 0.32 0.32 0.29 0.23 0.26 0.33 0.29 0.22 0.15 0.08 0.06 0.07 0.08
0.00 0.00 0.00 0.00 0.00 0.00 0.00 0.00 0.00 0.00 0.00 0.00 0.00 0.00 0.00 0.00 0.00 0.00 0.00 0.00 0.00 0.00 0.00 0.00 0.00 0.00 0.00 0.00 0.00 0.03 0.13 0.18 0.24 0.31 0.38 0.47 0.46 0.54 0.53 0.45 0.32 0.34 0.30 0.24 0.23 0.19 0.15 0.13 0.09
0.00 0.00 0.00 0.00 0.00 0.00 0.00 0.00 0.00 0.00 0.00 0.00 0.00 0.00 0.00 0.00 0.00 0.00 0.00 0.00 0.00 0.00 0.00 0.00 0.00 0.00 0.00 0.00 0.00 0.00 0.02 0.06 0.07 0.20 0.32 0.48 0.59 0.64 0.85 0.86 0.72 0.45 0.34 0.25 0.26 0.28 0.26 0.30 0.37
0.00 0.00 0.00 0.00 0.00 0.00 0.00 0.00 0.00 0.00 0.00 0.00 0.00 0.00 0.00 0.00 0.00 0.00 0.00 0.00 0.00 0.00 0.00 0.00 0.00 0.00 0.00 0.00 0.00 0.00 0.00 0.05 0.05 0.07 0.22 0.34 0.30 0.43 0.67 0.86 0.98 1.17 0.86 0.58 0.41 0.41 0.41 0.63 0.87
0.00 0.00 0.00 0.00 0.00 0.00 0.00 0.00 0.00 0.00 0.00 0.00 0.00 0.00 0.00 0.00 0.00 0.00 0.00 0.00 0.00 0.00 0.00 0.00 0.00 0.00 0.00 0.00 0.00 0.00 0.00 0.00 0.04 0.10 0.09 0.05 0.19 0.21 0.36 0.68 0.73 0.67 0.83 0.96 0.99 1.07 1.05 0.92 0.90
0.00 0.00 0.00 0.00 0.00 0.00 0.00 0.00 0.00 0.00 0.00 0.00 0.00 0.00 0.00 0.00 0.00 0.00 0.00 0.00 0.00 0.00 0.00 0.00 0.00 0.00 0.00 0.00 0.00 0.00 0.01 0.02 0.02 0.02 0.07 0.07 0.20 0.25 0.28 0.35 0.39 0.68 0.85 0.57 0.71 0.57 0.77 0.98 1.11
0.00 0.00 0.00 0.00 0.00 0.00 0.00 0.00 0.00 0.00 0.00 0.00 0.00 0.00 0.00 0.00 0.00 0.00 0.00 0.00 0.00 0.00 0.00 0.00 0.00 0.00 0.00 0.00 0.00 0.01 0.02 0.03 0.03 0.09 0.24 0.25 0.21 0.27 0.33 0.38 0.41 0.49 0.55 0.55 0.55 0.37 0.27 0.30 0.38
0.00 0.00 0.00 0.00 0.00 0.00 0.00 0.00 0.00 0.00 0.00 0.00 0.00 0.00 0.00 0.00 0.00 0.00 0.00 0.00 0.00 0.00 0.00 0.00 0.00 0.00 0.00 0.00 0.01 0.03 0.03 0.02 0.04 0.13 0.26 0.33 0.33 0.40 0.51 0.42 0.47 0.87 0.98 0.76 0.55 0.79 0.71 0.51 0.37
0.00 0.00 0.00 0.00 0.00 0.00 0.00 0.00 0.00 0.00 0.00 0.00 0.00 0.00 0.00 0.00 0.00 0.00 0.00 0.00 0.00 0.00 0.00 0.00 0.00 0.00 0.00 0.00 0.01 0.04 0.04 0.03 0.04 0.11 0.21 0.69 0.75 0.87 1.16 1.40 1.19 1.20 1.36 1.68 1.00 0.81 1.13 1.37 0.99
0.00 0.00 0.00 0.01 0.00 0.00 0.00 0.00 0.00 0.00 0.00 0.00 0.00 0.00 0.00 0.00 0.00 0.00 0.00 0.00 0.00 0.01 0.01 0.01 0.02 0.02 0.02 0.02 0.04 0.08 0.08 0.07 0.07 0.17 0.16 0.68 1.19 1.18 1.26 2.26 2.78 2.23 1.77 1.99 1.89 1.30 1.18 1.62 1.85
0.00 0.00 0.00 0.02 0.02 0.05 0.00 0.00 0.01 0.00 0.00 0.00 0.00 0.00 0.00 0.00 0.00 0.00 0.00 0.00 0.01 0.02 0.04 0.08 0.09 0.13 0.14 0.11 0.11 0.11 0.14 0.13 0.12 0.14 0.32 0.37 0.44 0.82 1.20 1.51 1.88 2.42 2.57 2.16 1.99 1.75 1.45 1.46 1.70
0.00 0.00 0.01 0.08 0.13 0.08 0.01 0.01 0.06 0.04 0.02 0.01 0.00 0.00 0.00 0.00 0.00 0.00 0.00 0.01 0.03 0.06 0.05 0.11 0.24 0.44 0.34 0.27 0.30 0.33 0.30 0.22 0.25 0.16 0.24 0.39 0.60 0.61 0.72 0.99 1.09 1.03 1.13 1.33 1.73 1.92 1.72 1.61 1.54
0.01 0.01 0.02 0.10 0.09 0.14 0.08 0.04 0.06 0.02 0.00 0.00 0.00 0.00 0.00 0.01 0.01 0.00 0.00 0.01 0.05 0.09 0.07 0.11 0.31 0.68 0.89 0.67 0.59 0.72 0.51 0.61 0.43 0.33 0.33 0.43 0.52 0.71 0.79 0.75 0.79 0.91 0.78 0.90 1.06 1.14 1.28 1.53 1.67
0.00 0.00 0.04 0.25 0.17 0.19 0.25 0.17 0.01 0.00 0.00 0.00 0.00 0.00 0.00 0.01 0.01 0.01 0.01 0.01 0.01 0.05 0.15 0.15 0.22 0.31 1.10 1.37 1.17 1.02 1.10 1.28 0.76 0.72 0.59 0.67 0.78 0.72 0.59 0.54 0.60 0.72 0.81 0.96 1.04 1.12 1.22 1.09 1.05